Wetterdaten: Freitag, 01.04.2022
Datum Zeit Temp. Aussen Temp. o. S. Temp +5cm Feuchte Auss Luftdruck Regen Sonnenschein Regendauer Solar Windben Empfang
01.04.2022 00:00 2,7 C 2,2 C -0,6 C 97 % 1000,5 hPa 0,0 l/m 0 min 2 min 0 W/m 16,1 km/h (3 Bft) 95,74 %
01.04.2022 00:02 2,7 C 2,2 C -0,6 C 97 % 1000,6 hPa 0,0 l/m 0 min 2 min 0 W/m 16,1 km/h (3 Bft) 95,35 %
01.04.2022 00:04 2,7 C 2,2 C -0,6 C 97 % 1000,6 hPa 0,0 l/m 0 min 2 min 0 W/m 19,3 km/h (3 Bft) 97,87 %
01.04.2022 00:08 2,7 C 2,2 C -0,6 C 97 % 1000,7 hPa 0,0 l/m 0 min 4 min 0 W/m 16,1 km/h (3 Bft) 94,44 %
01.04.2022 00:10 2,7 C 2,2 C -0,6 C 97 % 1000,7 hPa 0,0 l/m 0 min 2 min 0 W/m 12,9 km/h (3 Bft) 95,74 %
01.04.2022 00:12 2,7 C 2,2 C -0,6 C 97 % 1000,7 hPa 0,0 l/m 0 min 0 min 0 W/m 19,3 km/h (3 Bft) 95,74 %
01.04.2022 00:14 2,7 C 2,2 C -0,6 C 97 % 1000,7 hPa 0,0 l/m 0 min 2 min 0 W/m 25,7 km/h (4 Bft) 93,62 %
01.04.2022 00:16 2,6 C 2,2 C -0,6 C 97 % 1000,7 hPa 0,2 l/m 0 min 2 min 0 W/m 22,5 km/h (4 Bft) 95,65 %
01.04.2022 00:18 2,6 C 2,2 C -0,6 C 97 % 1000,7 hPa 0,0 l/m 0 min 2 min 0 W/m 19,3 km/h (3 Bft) 95,74 %
01.04.2022 00:20 2,6 C 2,2 C -0,6 C 97 % 1000,7 hPa 0,0 l/m 0 min 2 min 0 W/m 12,9 km/h (3 Bft) 94,00 %
01.04.2022 00:22 2,6 C 2,2 C -0,6 C 97 % 1000,8 hPa 0,0 l/m 0 min 2 min 0 W/m 12,9 km/h (3 Bft) 95,74 %
01.04.2022 00:24 2,6 C 2,2 C -0,6 C 97 % 1000,8 hPa 0,0 l/m 0 min 2 min 0 W/m 12,9 km/h (3 Bft) 95,74 %
01.04.2022 00:26 2,6 C 2,2 C -0,6 C 97 % 1000,8 hPa 0,0 l/m 0 min 2 min 0 W/m 12,9 km/h (3 Bft) 97,83 %
01.04.2022 00:28 2,6 C 2,2 C -1,1 C 97 % 1000,7 hPa 0,0 l/m 0 min 2 min 0 W/m 19,3 km/h (3 Bft) 95,74 %
01.04.2022 00:30 2,5 C 2,2 C -1,1 C 97 % 1000,8 hPa 0,0 l/m 0 min 2 min 0 W/m 16,1 km/h (3 Bft) 48,89 %
01.04.2022 00:32 2,5 C 2,2 C -1,1 C 97 % 1000,8 hPa 0,0 l/m 0 min 2 min 0 W/m 22,5 km/h (4 Bft) 97,92 %
01.04.2022 00:34 2,5 C 2,2 C -1,1 C 97 % 1000,8 hPa 0,0 l/m 0 min 2 min 0 W/m 25,7 km/h (4 Bft) 97,14 %
01.04.2022 00:36 2,4 C 1,7 C -1,1 C 97 % 1000,9 hPa 0,0 l/m 0 min 2 min 0 W/m 16,1 km/h (3 Bft) 96,23 %
01.04.2022 00:38 2,5 C 1,7 C -1,1 C 97 % 1000,9 hPa 0,0 l/m 0 min 2 min 0 W/m 9,7 km/h (2 Bft) 95,92 %
01.04.2022 00:40 2,4 C 1,7 C -1,1 C 97 % 1000,9 hPa 0,0 l/m 0 min 2 min 0 W/m 16,1 km/h (3 Bft) 96,00 %
01.04.2022 00:42 2,4 C 1,7 C -1,1 C 97 % 1001,0 hPa 0,0 l/m 0 min 2 min 0 W/m 16,1 km/h (3 Bft) 95,74 %
01.04.2022 00:44 2,4 C 1,7 C -1,1 C 97 % 1001,0 hPa 0,0 l/m 0 min 2 min 0 W/m 16,1 km/h (3 Bft) 95,74 %
01.04.2022 00:46 2,4 C 1,7 C -1,1 C 97 % 1001,0 hPa 0,0 l/m 0 min 0 min 0 W/m 12,9 km/h (3 Bft) 95,74 %
01.04.2022 00:48 2,4 C 1,7 C -1,1 C 97 % 1001,0 hPa 0,0 l/m 0 min 2 min 0 W/m 12,9 km/h (3 Bft) 95,65 %
01.04.2022 00:50 2,4 C 1,7 C -1,1 C 97 % 1001,0 hPa 0,0 l/m 0 min 2 min 0 W/m 12,9 km/h (3 Bft) 97,87 %
01.04.2022 00:52 2,4 C 1,7 C -1,1 C 97 % 1001,1 hPa 0,0 l/m 0 min 2 min 0 W/m 12,9 km/h (3 Bft) 97,87 %
01.04.2022 00:54 2,3 C 1,7 C -1,1 C 97 % 1001,0 hPa 0,0 l/m 0 min 0 min 0 W/m 16,1 km/h (3 Bft) 94,29 %
01.04.2022 00:56 2,3 C 1,7 C -1,1 C 97 % 1001,0 hPa 0,0 l/m 0 min 2 min 0 W/m 12,9 km/h (3 Bft) 95,74 %
01.04.2022 00:58 2,3 C 1,7 C -1,1 C 97 % 1001,1 hPa 0,0 l/m 0 min 2 min 0 W/m 9,7 km/h (2 Bft) 97,87 %
01.04.2022 01:00 2,3 C 1,7 C -1,1 C 97 % 1001,1 hPa 0,0 l/m 0 min 2 min 0 W/m 12,9 km/h (3 Bft) 98,21 %
01.04.2022 01:02 2,3 C 1,7 C -1,1 C 97 % 1001,1 hPa 0,0 l/m 0 min 0 min 0 W/m 12,9 km/h (3 Bft) 97,92 %
01.04.2022 01:04 2,3 C 1,7 C -1,1 C 97 % 1001,2 hPa 0,2 l/m 0 min 0 min 0 W/m 12,9 km/h (3 Bft) 93,62 %
01.04.2022 01:06 2,3 C 1,7 C -1,1 C 97 % 1001,2 hPa 0,0 l/m 0 min 0 min 0 W/m 12,9 km/h (3 Bft) 97,87 %
01.04.2022 01:08 2,3 C 1,7 C -1,1 C 97 % 1001,1 hPa 0,0 l/m 0 min 2 min 0 W/m 22,5 km/h (4 Bft) 97,87 %
01.04.2022 01:10 2,2 C 1,7 C -1,1 C 97 % 1001,1 hPa 0,0 l/m 0 min 2 min 0 W/m 16,1 km/h (3 Bft) 100,00 %
01.04.2022 01:12 2,2 C 1,7 C -1,1 C 97 % 1001,2 hPa 0,0 l/m 0 min 2 min 0 W/m 16,1 km/h (3 Bft) 100,00 %
01.04.2022 01:14 2,2 C 1,7 C -1,1 C 97 % 1001,1 hPa 0,0 l/m 0 min 0 min 0 W/m 12,9 km/h (3 Bft) 100,00 %
01.04.2022 01:16 2,2 C 1,7 C -1,1 C 97 % 1001,2 hPa 0,0 l/m 0 min 2 min 0 W/m 16,1 km/h (3 Bft) 100,00 %
01.04.2022 01:18 2,2 C 1,7 C -1,1 C 97 % 1001,2 hPa 0,0 l/m 0 min 2 min 0 W/m 19,3 km/h (3 Bft) 100,00 %
01.04.2022 01:20 2,2 C 1,7 C -1,1 C 97 % 1001,2 hPa 0,0 l/m 0 min 2 min 0 W/m 16,1 km/h (3 Bft) 100,00 %
01.04.2022 01:22 2,2 C 1,7 C -1,1 C 97 % 1001,2 hPa 0,0 l/m 0 min 0 min 0 W/m 12,9 km/h (3 Bft) 100,00 %
01.04.2022 01:24 2,1 C 1,7 C -1,1 C 97 % 1001,2 hPa 0,0 l/m 0 min 0 min 0 W/m 19,3 km/h (3 Bft) 100,00 %
01.04.2022 01:26 2,1 C 1,7 C -1,1 C 97 % 1001,2 hPa 0,0 l/m 0 min 2 min 0 W/m 9,7 km/h (2 Bft) 95,74 %
01.04.2022 01:28 2,1 C 1,7 C -1,1 C 97 % 1001,2 hPa 0,0 l/m 0 min 2 min 0 W/m 12,9 km/h (3 Bft) 100,00 %
01.04.2022 01:30 2,1 C 1,7 C -1,1 C 97 % 1001,1 hPa 0,0 l/m 0 min 2 min 0 W/m 19,3 km/h (3 Bft) 100,00 %
01.04.2022 01:32 2,1 C 1,7 C -1,1 C 97 % 1001,1 hPa 0,0 l/m 0 min 2 min 0 W/m 22,5 km/h (4 Bft) 100,00 %
01.04.2022 01:34 2,1 C 1,7 C -1,1 C 97 % 1001,1 hPa 0,0 l/m 0 min 0 min 0 W/m 9,7 km/h (2 Bft) 100,00 %
01.04.2022 01:36 2,1 C 1,7 C -1,1 C 97 % 1001,2 hPa 0,0 l/m 0 min 2 min 0 W/m 19,3 km/h (3 Bft) 100,00 %
01.04.2022 01:38 2,1 C 1,7 C -1,1 C 97 % 1001,1 hPa 0,0 l/m 0 min 0 min 0 W/m 19,3 km/h (3 Bft) 100,00 %
01.04.2022 01:40 2,1 C 1,7 C -1,1 C 97 % 1001,2 hPa 0,0 l/m 0 min 2 min 0 W/m 16,1 km/h (3 Bft) 100,00 %
01.04.2022 01:42 2,1 C 1,7 C -1,1 C 97 % 1001,2 hPa 0,0 l/m 0 min 0 min 0 W/m 22,5 km/h (4 Bft) 96,43 %
01.04.2022 01:44 2,1 C 1,7 C -1,1 C 97 % 1001,1 hPa 0,0 l/m 0 min 0 min 0 W/m 22,5 km/h (4 Bft) 100,00 %
01.04.2022 01:46 2,1 C 1,7 C -1,1 C 97 % 1001,2 hPa 0,0 l/m 0 min 2 min 0 W/m 16,1 km/h (3 Bft) 100,00 %
01.04.2022 01:48 2,1 C 1,7 C -1,1 C 97 % 1001,2 hPa 0,0 l/m 0 min 0 min 0 W/m 9,7 km/h (2 Bft) 100,00 %
01.04.2022 01:50 2,1 C 1,7 C -1,1 C 97 % 1001,2 hPa 0,0 l/m 0 min 2 min 0 W/m 32,2 km/h (5 Bft) 100,00 %
01.04.2022 01:52 2,1 C 1,7 C -1,1 C 97 % 1001,2 hPa 0,0 l/m 0 min 2 min 0 W/m 16,1 km/h (3 Bft) 100,00 %
01.04.2022 01:54 2,1 C 1,7 C -1,1 C 97 % 1001,3 hPa 0,0 l/m 0 min 2 min 0 W/m 32,2 km/h (5 Bft) 100,00 %
01.04.2022 01:56 2,1 C 1,7 C -1,1 C 97 % 1001,3 hPa 0,0 l/m 0 min 0 min 0 W/m 16,1 km/h (3 Bft) 100,00 %
01.04.2022 01:58 2,1 C 1,7 C -1,1 C 97 % 1001,3 hPa 0,0 l/m 0 min 2 min 0 W/m 29,0 km/h (5 Bft) 100,00 %
01.04.2022 02:00 2,0 C 1,7 C -1,1 C 97 % 1001,3 hPa 0,0 l/m 0 min 2 min 0 W/m 19,3 km/h (3 Bft) 97,83 %
01.04.2022 02:02 2,0 C 1,7 C -1,1 C 97 % 1001,4 hPa 0,0 l/m 0 min 2 min 0 W/m 22,5 km/h (4 Bft) 100,00 %
01.04.2022 02:04 2,0 C 1,7 C -1,1 C 97 % 1001,5 hPa 0,0 l/m 0 min 0 min 0 W/m 22,5 km/h (4 Bft) 100,00 %
01.04.2022 02:06 2,0 C 1,7 C -1,1 C 97 % 1001,3 hPa 0,0 l/m 0 min 2 min 0 W/m 19,3 km/h (3 Bft) 100,00 %
01.04.2022 02:08 2,1 C 1,7 C -1,1 C 97 % 1001,4 hPa 0,0 l/m 0 min 0 min 0 W/m 19,3 km/h (3 Bft) 97,87 %
01.04.2022 02:10 2,0 C 1,7 C -1,1 C 97 % 1001,3 hPa 0,0 l/m 0 min 0 min 0 W/m 22,5 km/h (4 Bft) 97,83 %
01.04.2022 02:12 2,0 C 1,7 C -1,1 C 97 % 1001,4 hPa 0,0 l/m 0 min 0 min 0 W/m 19,3 km/h (3 Bft) 97,87 %
01.04.2022 02:14 2,0 C 1,7 C -1,1 C 97 % 1001,4 hPa 0,0 l/m 0 min 0 min 0 W/m 12,9 km/h (3 Bft) 97,87 %
01.04.2022 02:16 2,0 C 1,7 C -1,1 C 97 % 1001,4 hPa 0,2 l/m 0 min 0 min 0 W/m 12,9 km/h (3 Bft) 97,87 %
01.04.2022 02:18 2,0 C 1,7 C -1,1 C 97 % 1001,4 hPa 0,0 l/m 0 min 0 min 0 W/m 16,1 km/h (3 Bft) 97,87 %
01.04.2022 02:20 2,0 C 1,7 C -1,1 C 97 % 1001,4 hPa 0,0 l/m 0 min 0 min 0 W/m 25,7 km/h (4 Bft) 97,87 %
01.04.2022 02:22 2,0 C 1,7 C -1,1 C 97 % 1001,4 hPa 0,0 l/m 0 min 2 min 0 W/m 19,3 km/h (3 Bft) 95,65 %
01.04.2022 02:24 2,0 C 1,7 C -1,1 C 97 % 1001,5 hPa 0,0 l/m 0 min 0 min 0 W/m 25,7 km/h (4 Bft) 97,87 %
01.04.2022 02:26 1,9 C 1,7 C -1,1 C 97 % 1001,4 hPa 0,0 l/m 0 min 0 min 0 W/m 19,3 km/h (3 Bft) 97,87 %
01.04.2022 02:28 1,9 C 1,7 C -1,1 C 97 % 1001,4 hPa 0,0 l/m 0 min 0 min 0 W/m 19,3 km/h (3 Bft) 95,74 %
01.04.2022 02:30 1,9 C 1,7 C -1,1 C 97 % 1001,5 hPa 0,0 l/m 0 min 0 min 0 W/m 19,3 km/h (3 Bft) 93,62 %
01.04.2022 02:32 1,9 C 1,1 C -1,1 C 97 % 1001,5 hPa 0,0 l/m 0 min 0 min 0 W/m 35,4 km/h (5 Bft) 95,74 %
01.04.2022 02:34 1,9 C 1,7 C -1,1 C 97 % 1001,5 hPa 0,0 l/m 0 min 0 min 0 W/m 16,1 km/h (3 Bft) 93,62 %
01.04.2022 02:36 1,9 C 1,1 C -1,1 C 97 % 1001,5 hPa 0,0 l/m 0 min 0 min 0 W/m 16,1 km/h (3 Bft) 95,92 %
01.04.2022 02:38 1,9 C 1,1 C -1,1 C 97 % 1001,6 hPa 0,0 l/m 0 min 0 min 0 W/m 12,9 km/h (3 Bft) 95,74 %
01.04.2022 02:40 1,9 C 1,1 C -1,1 C 97 % 1001,6 hPa 0,0 l/m 0 min 2 min 0 W/m 16,1 km/h (3 Bft) 95,74 %
01.04.2022 02:42 1,9 C 1,1 C -1,1 C 97 % 1001,5 hPa 0,0 l/m 0 min 0 min 0 W/m 19,3 km/h (3 Bft) 93,62 %
01.04.2022 02:44 1,9 C 1,1 C -1,1 C 97 % 1001,5 hPa 0,0 l/m 0 min 0 min 0 W/m 16,1 km/h (3 Bft) 97,14 %
01.04.2022 02:46 1,8 C 1,1 C -1,7 C 97 % 1001,6 hPa 0,0 l/m 0 min 0 min 0 W/m 25,7 km/h (4 Bft) 94,64 %
01.04.2022 02:48 1,8 C 1,1 C -1,7 C 97 % 1001,6 hPa 0,0 l/m 0 min 0 min 0 W/m 25,7 km/h (4 Bft) 95,74 %
01.04.2022 02:50 1,8 C 1,1 C -1,7 C 97 % 1001,7 hPa 0,0 l/m 0 min 0 min 0 W/m 12,9 km/h (3 Bft) 97,87 %
01.04.2022 02:52 1,8 C 1,1 C -1,1 C 97 % 1001,7 hPa 0,0 l/m 0 min 0 min 0 W/m 25,7 km/h (4 Bft) 95,74 %
01.04.2022 02:54 1,8 C 1,1 C -1,1 C 97 % 1001,6 hPa 0,0 l/m 0 min 0 min 0 W/m 19,3 km/h (3 Bft) 97,96 %
01.04.2022 02:56 1,8 C 1,1 C -1,7 C 97 % 1001,7 hPa 0,0 l/m 0 min 0 min 0 W/m 22,5 km/h (4 Bft) 100,00 %
01.04.2022 02:58 1,8 C 1,1 C -1,7 C 97 % 1001,7 hPa 0,0 l/m 0 min 0 min 0 W/m 25,7 km/h (4 Bft) 100,00 %
01.04.2022 03:00 1,8 C 1,1 C -1,7 C 97 % 1001,7 hPa 0,0 l/m 0 min 0 min 0 W/m 19,3 km/h (3 Bft) 100,00 %
01.04.2022 03:02 1,8 C 1,1 C -1,7 C 96 % 1001,8 hPa 0,0 l/m 0 min 0 min 0 W/m 19,3 km/h (3 Bft) 100,00 %
01.04.2022 03:04 1,8 C 1,1 C -1,7 C 96 % 1001,8 hPa 0,0 l/m 0 min 2 min 0 W/m 12,9 km/h (3 Bft) 100,00 %
01.04.2022 03:06 1,8 C 1,1 C -1,7 C 96 % 1001,8 hPa 0,0 l/m 0 min 0 min 0 W/m 16,1 km/h (3 Bft) 98,00 %
01.04.2022 03:08 1,8 C 1,1 C -1,7 C 96 % 1001,8 hPa 0,0 l/m 0 min 0 min 0 W/m 12,9 km/h (3 Bft) 100,00 %
01.04.2022 03:10 1,8 C 1,1 C -1,7 C 96 % 1001,8 hPa 0,0 l/m 0 min 0 min 0 W/m 16,1 km/h (3 Bft) 97,87 %
01.04.2022 03:12 1,8 C 1,1 C -1,7 C 96 % 1001,8 hPa 0,0 l/m 0 min 0 min 0 W/m 19,3 km/h (3 Bft) 97,87 %
01.04.2022 03:14 1,7 C 1,1 C -1,7 C 96 % 1001,8 hPa 0,0 l/m 0 min 0 min 0 W/m 22,5 km/h (4 Bft) 97,14 %
01.04.2022 03:16 1,7 C 1,1 C -1,7 C 96 % 1001,8 hPa 0,0 l/m 0 min 0 min 0 W/m 19,3 km/h (3 Bft) 98,18 %
01.04.2022 03:18 1,7 C 1,1 C -1,7 C 96 % 1001,8 hPa 0,0 l/m 0 min 0 min 0 W/m 22,5 km/h (4 Bft) 100,00 %
01.04.2022 03:20 1,7 C 1,1 C -1,7 C 96 % 1001,9 hPa 0,0 l/m 0 min 0 min 0 W/m 12,9 km/h (3 Bft) 97,83 %
01.04.2022 03:22 1,7 C 1,1 C -1,7 C 96 % 1001,8 hPa 0,0 l/m 0 min 0 min 0 W/m 19,3 km/h (3 Bft) 95,74 %
01.04.2022 03:24 1,7 C 1,1 C -1,7 C 96 % 1001,9 hPa 0,0 l/m 0 min 0 min 0 W/m 19,3 km/h (3 Bft) 100,00 %
01.04.2022 03:26 1,7 C 1,1 C -1,7 C 96 % 1001,9 hPa 0,0 l/m 0 min 2 min 0 W/m 19,3 km/h (3 Bft) 95,74 %
01.04.2022 03:28 1,7 C 1,1 C -1,7 C 96 % 1001,8 hPa 0,0 l/m 0 min 0 min 0 W/m 25,7 km/h (4 Bft) 97,87 %
01.04.2022 03:30 1,6 C 1,1 C -1,7 C 96 % 1001,9 hPa 0,0 l/m 0 min 2 min 0 W/m 25,7 km/h (4 Bft) 97,87 %
01.04.2022 03:32 1,6 C 1,1 C -1,7 C 96 % 1001,9 hPa 0,0 l/m 0 min 2 min 0 W/m 35,4 km/h (5 Bft) 97,83 %
01.04.2022 03:34 1,6 C 1,1 C -1,7 C 96 % 1001,9 hPa 0,0 l/m 0 min 0 min 0 W/m 16,1 km/h (3 Bft) 97,87 %
01.04.2022 03:36 1,6 C 1,1 C -1,7 C 96 % 1001,9 hPa 0,0 l/m 0 min 0 min 0 W/m 16,1 km/h (3 Bft) 97,87 %
01.04.2022 03:38 1,6 C 1,1 C -1,7 C 96 % 1002,0 hPa 0,0 l/m 0 min 0 min 0 W/m 16,1 km/h (3 Bft) 98,15 %
01.04.2022 03:40 1,6 C 1,1 C -1,7 C 96 % 1001,9 hPa 0,0 l/m 0 min 0 min 0 W/m 16,1 km/h (3 Bft) 91,49 %
01.04.2022 03:42 1,6 C 1,1 C -1,7 C 96 % 1001,9 hPa 0,0 l/m 0 min 0 min 0 W/m 19,3 km/h (3 Bft) 95,74 %
01.04.2022 03:44 1,6 C 1,1 C -1,7 C 96 % 1002,0 hPa 0,0 l/m 0 min 0 min 0 W/m 25,7 km/h (4 Bft) 97,83 %
01.04.2022 03:46 1,6 C 1,1 C -1,7 C 96 % 1002,0 hPa 0,0 l/m 0 min 0 min 0 W/m 16,1 km/h (3 Bft) 95,74 %
01.04.2022 03:48 1,6 C 1,1 C -1,7 C 96 % 1002,0 hPa 0,0 l/m 0 min 2 min 0 W/m 22,5 km/h (4 Bft) 97,87 %
01.04.2022 03:50 1,6 C 1,1 C -1,7 C 96 % 1002,1 hPa 0,0 l/m 0 min 0 min 0 W/m 16,1 km/h (3 Bft) 95,74 %
01.04.2022 03:52 1,6 C 1,1 C -1,7 C 96 % 1002,1 hPa 0,0 l/m 0 min 0 min 0 W/m 25,7 km/h (4 Bft) 97,87 %
01.04.2022 03:54 1,6 C 1,1 C -1,7 C 96 % 1002,1 hPa 0,0 l/m 0 min 0 min 0 W/m 16,1 km/h (3 Bft) 97,96 %
01.04.2022 03:56 1,6 C 1,1 C -1,7 C 96 % 1002,1 hPa 0,0 l/m 0 min 0 min 0 W/m 16,1 km/h (3 Bft) 97,87 %
01.04.2022 03:58 1,6 C 1,1 C -1,7 C 96 % 1002,1 hPa 0,0 l/m 0 min 0 min 0 W/m 25,7 km/h (4 Bft) 95,74 %
01.04.2022 04:00 1,6 C 1,1 C -1,7 C 96 % 1002,1 hPa 0,0 l/m 0 min 0 min 0 W/m 35,4 km/h (5 Bft) 97,87 %
01.04.2022 04:05 1,5 C 1,1 C -1,7 C 95 % 1002,1 hPa 0,0 l/m 0 min 5 min 0 W/m 22,5 km/h (4 Bft) 96,15 %
01.04.2022 04:06 1,5 C 1,1 C -1,7 C 95 % 1002,1 hPa 0,0 l/m 0 min 0 min 0 W/m 16,1 km/h (3 Bft) 96,88 %
01.04.2022 04:08 1,5 C 1,1 C -1,7 C 95 % 1002,0 hPa 0,0 l/m 0 min 0 min 0 W/m 25,7 km/h (4 Bft) 97,87 %
01.04.2022 04:10 1,5 C 1,1 C -2,2 C 95 % 1002,1 hPa 0,0 l/m 0 min 2 min 0 W/m 22,5 km/h (4 Bft) 97,87 %
01.04.2022 04:12 1,4 C 1,1 C -2,2 C 95 % 1002,0 hPa 0,0 l/m 0 min 0 min 0 W/m 16,1 km/h (3 Bft) 95,74 %
01.04.2022 04:14 1,4 C 1,1 C -2,2 C 95 % 1002,0 hPa 0,0 l/m 0 min 2 min 0 W/m 19,3 km/h (3 Bft) 97,87 %
01.04.2022 04:16 1,4 C 1,1 C -2,2 C 95 % 1002,1 hPa 0,0 l/m 0 min 2 min 0 W/m 19,3 km/h (3 Bft) 97,83 %
01.04.2022 04:18 1,4 C 1,1 C -2,2 C 95 % 1002,0 hPa 0,0 l/m 0 min 2 min 0 W/m 22,5 km/h (4 Bft) 95,74 %
01.04.2022 04:20 1,4 C 0,6 C -2,2 C 95 % 1002,1 hPa 0,0 l/m 0 min 2 min 0 W/m 19,3 km/h (3 Bft) 93,62 %
01.04.2022 04:22 1,3 C 0,6 C -2,2 C 95 % 1002,1 hPa 0,0 l/m 0 min 0 min 0 W/m 12,9 km/h (3 Bft) 95,74 %
01.04.2022 04:24 1,3 C 0,6 C -2,2 C 95 % 1002,1 hPa 0,0 l/m 0 min 0 min 0 W/m 29,0 km/h (5 Bft) 97,87 %
01.04.2022 04:26 1,3 C 0,6 C -2,2 C 95 % 1002,2 hPa 0,0 l/m 0 min 0 min 0 W/m 22,5 km/h (4 Bft) 95,74 %
01.04.2022 04:28 1,3 C 0,6 C -2,2 C 95 % 1002,2 hPa 0,0 l/m 0 min 0 min 0 W/m 22,5 km/h (4 Bft) 93,48 %
01.04.2022 04:30 1,2 C 0,6 C -2,2 C 95 % 1002,2 hPa 0,0 l/m 0 min 0 min 0 W/m 19,3 km/h (3 Bft) 95,74 %
01.04.2022 04:32 1,2 C 0,6 C -2,2 C 95 % 1002,2 hPa 0,0 l/m 0 min 0 min 0 W/m 19,3 km/h (3 Bft) 95,83 %
01.04.2022 04:34 1,2 C 0,6 C -2,2 C 95 % 1002,2 hPa 0,0 l/m 0 min 0 min 0 W/m 22,5 km/h (4 Bft) 91,49 %
01.04.2022 04:36 1,2 C 0,6 C -2,2 C 95 % 1002,2 hPa 0,0 l/m 0 min 0 min 0 W/m 25,7 km/h (4 Bft) 93,62 %
01.04.2022 04:38 1,2 C 0,6 C -2,2 C 95 % 1002,3 hPa 0,0 l/m 0 min 0 min 0 W/m 29,0 km/h (5 Bft) 93,62 %
01.04.2022 04:40 1,1 C 0,6 C -2,2 C 95 % 1002,3 hPa 0,0 l/m 0 min 0 min 0 W/m 16,1 km/h (3 Bft) 95,65 %
01.04.2022 04:42 1,1 C 0,6 C -2,2 C 95 % 1002,2 hPa 0,0 l/m 0 min 0 min 0 W/m 25,7 km/h (4 Bft) 97,87 %
01.04.2022 04:44 1,1 C 0,6 C -2,2 C 95 % 1002,3 hPa 0,0 l/m 0 min 0 min 0 W/m 25,7 km/h (4 Bft) 97,87 %
01.04.2022 04:46 1,1 C 0,6 C -2,2 C 95 % 1002,3 hPa 0,0 l/m 0 min 2 min 0 W/m 32,2 km/h (5 Bft) 95,74 %
01.04.2022 04:48 1,1 C 0,6 C -2,2 C 95 % 1002,4 hPa 0,0 l/m 0 min 0 min 0 W/m 25,7 km/h (4 Bft) 93,62 %
01.04.2022 04:50 1,1 C 0,6 C -2,2 C 95 % 1002,4 hPa 0,0 l/m 0 min 0 min 0 W/m 19,3 km/h (3 Bft) 97,87 %
01.04.2022 04:52 1,1 C 0,6 C -2,2 C 95 % 1002,4 hPa 0,0 l/m 0 min 0 min 0 W/m 22,5 km/h (4 Bft) 97,83 %
01.04.2022 04:54 1,1 C 0,6 C -2,2 C 95 % 1002,4 hPa 0,0 l/m 0 min 0 min 0 W/m 22,5 km/h (4 Bft) 100,00 %
01.04.2022 04:56 1,1 C 0,6 C -2,2 C 95 % 1002,5 hPa 0,0 l/m 0 min 0 min 0 W/m 32,2 km/h (5 Bft) 95,74 %
01.04.2022 04:58 1,1 C 0,6 C -2,2 C 95 % 1002,5 hPa 0,0 l/m 0 min 0 min 0 W/m 22,5 km/h (4 Bft) 95,74 %
01.04.2022 05:00 1,1 C 0,6 C -2,2 C 95 % 1002,5 hPa 0,0 l/m 0 min 0 min 0 W/m 35,4 km/h (5 Bft) 97,87 %
01.04.2022 05:02 1,1 C 0,6 C -2,2 C 95 % 1002,5 hPa 0,0 l/m 0 min 0 min 0 W/m 22,5 km/h (4 Bft) 97,22 %
01.04.2022 05:04 1,1 C 0,6 C -2,2 C 95 % 1002,5 hPa 0,0 l/m 0 min 0 min 0 W/m 19,3 km/h (3 Bft) 100,00 %
01.04.2022 05:06 1,1 C 0,6 C -2,2 C 95 % 1002,6 hPa 0,0 l/m 0 min 0 min 0 W/m 19,3 km/h (3 Bft) 100,00 %
01.04.2022 05:08 1,1 C 0,6 C -2,2 C 95 % 1002,5 hPa 0,0 l/m 0 min 0 min 0 W/m 29,0 km/h (5 Bft) 100,00 %
01.04.2022 05:10 1,1 C 0,6 C -2,2 C 95 % 1002,6 hPa 0,0 l/m 0 min 0 min 0 W/m 22,5 km/h (4 Bft) 100,00 %
01.04.2022 05:12 1,1 C 0,6 C -2,2 C 95 % 1002,6 hPa 0,0 l/m 0 min 0 min 0 W/m 19,3 km/h (3 Bft) 100,00 %
01.04.2022 05:14 1,1 C 0,6 C -2,2 C 95 % 1002,7 hPa 0,0 l/m 0 min 0 min 0 W/m 16,1 km/h (3 Bft) 100,00 %
01.04.2022 05:16 1,1 C 0,6 C -2,2 C 95 % 1002,7 hPa 0,0 l/m 0 min 0 min 0 W/m 19,3 km/h (3 Bft) 100,00 %
01.04.2022 05:18 1,1 C 0,6 C -2,2 C 95 % 1002,7 hPa 0,0 l/m 0 min 0 min 0 W/m 22,5 km/h (4 Bft) 100,00 %
01.04.2022 05:20 1,1 C 0,6 C -2,2 C 95 % 1002,7 hPa 0,0 l/m 0 min 0 min 0 W/m 19,3 km/h (3 Bft) 100,00 %
01.04.2022 05:22 1,1 C 0,6 C -2,2 C 95 % 1002,8 hPa 0,0 l/m 0 min 0 min 0 W/m 29,0 km/h (5 Bft) 100,00 %
01.04.2022 05:24 1,1 C 0,6 C -2,2 C 94 % 1002,8 hPa 0,0 l/m 0 min 0 min 0 W/m 25,7 km/h (4 Bft) 100,00 %
01.04.2022 05:26 1,1 C 0,6 C -2,2 C 94 % 1002,8 hPa 0,0 l/m 0 min 0 min 0 W/m 22,5 km/h (4 Bft) 97,87 %
01.04.2022 05:28 1,1 C 0,6 C -2,2 C 94 % 1002,8 hPa 0,0 l/m 0 min 0 min 0 W/m 19,3 km/h (3 Bft) 97,83 %
01.04.2022 05:30 1,1 C 0,6 C -2,2 C 94 % 1002,8 hPa 0,0 l/m 0 min 0 min 0 W/m 32,2 km/h (5 Bft) 100,00 %
01.04.2022 05:32 1,1 C 0,6 C -2,2 C 94 % 1002,9 hPa 0,0 l/m 0 min 0 min 0 W/m 19,3 km/h (3 Bft) 100,00 %
01.04.2022 05:34 1,1 C 0,6 C -2,2 C 94 % 1002,9 hPa 0,0 l/m 0 min 0 min 0 W/m 32,2 km/h (5 Bft) 100,00 %
01.04.2022 05:36 1,1 C 0,6 C -2,2 C 94 % 1002,9 hPa 0,0 l/m 0 min 0 min 0 W/m 22,5 km/h (4 Bft) 100,00 %
01.04.2022 05:38 1,1 C 0,6 C -2,2 C 94 % 1002,9 hPa 0,0 l/m 0 min 0 min 0 W/m 19,3 km/h (3 Bft) 100,00 %
01.04.2022 05:40 1,1 C 0,6 C -2,2 C 94 % 1003,0 hPa 0,0 l/m 0 min 0 min 0 W/m 19,3 km/h (3 Bft) 100,00 %
01.04.2022 05:42 1,1 C 0,6 C -2,2 C 94 % 1003,0 hPa 0,0 l/m 0 min 0 min 0 W/m 12,9 km/h (3 Bft) 97,87 %
01.04.2022 05:44 1,1 C 0,6 C -2,2 C 94 % 1003,0 hPa 0,0 l/m 0 min 0 min 0 W/m 32,2 km/h (5 Bft) 100,00 %
01.04.2022 05:46 1,1 C 0,6 C -2,2 C 94 % 1003,1 hPa 0,0 l/m 0 min 0 min 0 W/m 22,5 km/h (4 Bft) 97,87 %
01.04.2022 05:48 1,1 C 0,6 C -2,2 C 94 % 1003,1 hPa 0,0 l/m 0 min 0 min 0 W/m 19,3 km/h (3 Bft) 97,87 %
01.04.2022 05:50 1,1 C 0,6 C -2,2 C 94 % 1003,0 hPa 0,0 l/m 0 min 0 min 0 W/m 35,4 km/h (5 Bft) 100,00 %
01.04.2022 05:52 1,1 C 0,6 C -2,2 C 94 % 1003,1 hPa 0,0 l/m 0 min 0 min 0 W/m 32,2 km/h (5 Bft) 100,00 %
01.04.2022 05:54 1,1 C 0,6 C -2,2 C 94 % 1003,1 hPa 0,0 l/m 0 min 0 min 0 W/m 32,2 km/h (5 Bft) 95,74 %
01.04.2022 05:56 1,1 C 0,6 C -2,2 C 94 % 1003,1 hPa 0,0 l/m 0 min 0 min 0 W/m 29,0 km/h (5 Bft) 97,87 %
01.04.2022 05:58 1,1 C 0,6 C -2,2 C 94 % 1003,2 hPa 0,0 l/m 0 min 0 min 0 W/m 22,5 km/h (4 Bft) 97,87 %
01.04.2022 06:00 1,1 C 0,6 C -2,2 C 93 % 1003,2 hPa 0,0 l/m 0 min 0 min 0 W/m 29,0 km/h (5 Bft) 95,65 %
01.04.2022 06:02 1,1 C 0,6 C -2,2 C 93 % 1003,2 hPa 0,0 l/m 0 min 0 min 0 W/m 41,8 km/h (6 Bft) 97,37 %
01.04.2022 06:04 1,1 C 0,6 C -2,2 C 93 % 1003,1 hPa 0,0 l/m 0 min 0 min 0 W/m 29,0 km/h (5 Bft) 97,83 %
01.04.2022 06:08 1,1 C 0,6 C -2,2 C 93 % 1003,3 hPa 0,0 l/m 0 min 0 min 0 W/m 32,2 km/h (5 Bft) 95,74 %
01.04.2022 06:10 1,1 C 0,6 C -2,2 C 93 % 1003,3 hPa 0,0 l/m 0 min 0 min 0 W/m 22,5 km/h (4 Bft) 97,87 %
01.04.2022 06:12 1,1 C 0,6 C -2,2 C 93 % 1003,3 hPa 0,0 l/m 0 min 0 min 0 W/m 22,5 km/h (4 Bft) 100,00 %
01.04.2022 06:14 1,1 C 0,6 C -2,2 C 93 % 1003,4 hPa 0,0 l/m 0 min 0 min 0 W/m 35,4 km/h (5 Bft) 97,87 %
01.04.2022 06:16 1,1 C 0,6 C -2,2 C 93 % 1003,4 hPa 0,0 l/m 0 min 0 min 0 W/m 29,0 km/h (5 Bft) 97,83 %
01.04.2022 06:18 1,0 C 0,6 C -2,2 C 93 % 1003,4 hPa 0,0 l/m 0 min 0 min 0 W/m 32,2 km/h (5 Bft) 97,87 %
01.04.2022 06:20 1,0 C 0,6 C -2,2 C 93 % 1003,3 hPa 0,0 l/m 0 min 2 min 0 W/m 22,5 km/h (4 Bft) 97,87 %
01.04.2022 06:22 1,0 C 0,6 C -2,2 C 93 % 1003,4 hPa 0,0 l/m 0 min 0 min 0 W/m 25,7 km/h (4 Bft) 97,87 %
01.04.2022 06:24 1,0 C 0,6 C -2,2 C 93 % 1003,3 hPa 0,0 l/m 0 min 0 min 0 W/m 45,1 km/h (6 Bft) 100,00 %
01.04.2022 06:26 0,9 C 0,6 C -2,2 C 93 % 1003,5 hPa 0,0 l/m 0 min 0 min 0 W/m 22,5 km/h (4 Bft) 97,87 %
01.04.2022 06:28 0,9 C 0,6 C -2,2 C 93 % 1003,5 hPa 0,0 l/m 0 min 0 min 0 W/m 25,7 km/h (4 Bft) 100,00 %
01.04.2022 06:30 0,9 C 0,6 C -2,2 C 93 % 1003,5 hPa 0,0 l/m 0 min 0 min 0 W/m 22,5 km/h (4 Bft) 100,00 %
01.04.2022 06:32 0,9 C 0,6 C -2,8 C 93 % 1003,5 hPa 0,0 l/m 0 min 0 min 0 W/m 35,4 km/h (5 Bft) 97,92 %
01.04.2022 06:34 0,9 C 0,6 C -2,8 C 93 % 1003,5 hPa 0,0 l/m 0 min 0 min 0 W/m 19,3 km/h (3 Bft) 100,00 %
01.04.2022 06:36 0,9 C 0,6 C -2,8 C 93 % 1003,5 hPa 0,0 l/m 0 min 0 min 0 W/m 25,7 km/h (4 Bft) 97,87 %
01.04.2022 06:38 0,9 C 0,6 C -2,2 C 93 % 1003,6 hPa 0,0 l/m 0 min 0 min 0 W/m 22,5 km/h (4 Bft) 95,65 %
01.04.2022 06:40 0,9 C 0,6 C -2,2 C 93 % 1003,6 hPa 0,0 l/m 0 min 0 min 0 W/m 32,2 km/h (5 Bft) 95,74 %
01.04.2022 06:42 0,9 C 0,6 C -2,2 C 93 % 1003,6 hPa 0,0 l/m 0 min 0 min 0 W/m 41,8 km/h (6 Bft) 95,74 %
01.04.2022 06:44 0,9 C 0,6 C -2,2 C 93 % 1003,6 hPa 0,0 l/m 0 min 0 min 0 W/m 35,4 km/h (5 Bft) 95,74 %
01.04.2022 06:46 0,9 C 0,6 C -2,2 C 93 % 1003,7 hPa 0,0 l/m 0 min 0 min 0 W/m 32,2 km/h (5 Bft) 95,74 %
01.04.2022 06:48 0,9 C 0,6 C -2,2 C 93 % 1003,7 hPa 0,0 l/m 0 min 0 min 0 W/m 29,0 km/h (5 Bft) 95,74 %
01.04.2022 06:50 0,9 C 0,6 C -2,2 C 92 % 1003,7 hPa 0,0 l/m 0 min 0 min 0 W/m 41,8 km/h (6 Bft) 95,65 %
01.04.2022 06:52 0,9 C 0,6 C -2,2 C 92 % 1003,7 hPa 0,0 l/m 0 min 0 min 0 W/m 38,6 km/h (5 Bft) 95,74 %
01.04.2022 06:54 0,9 C 0,6 C -2,2 C 92 % 1003,8 hPa 0,0 l/m 0 min 0 min 0 W/m 29,0 km/h (5 Bft) 93,62 %
01.04.2022 06:56 0,9 C 0,6 C -2,2 C 92 % 1003,7 hPa 0,0 l/m 0 min 0 min 0 W/m 19,3 km/h (3 Bft) 95,74 %
01.04.2022 06:58 0,9 C 0,6 C -2,2 C 92 % 1003,8 hPa 0,0 l/m 0 min 0 min 0 W/m 22,5 km/h (4 Bft) 95,74 %
01.04.2022 07:00 0,9 C 0,6 C -2,2 C 92 % 1003,8 hPa 0,0 l/m 0 min 0 min 0 W/m 32,2 km/h (5 Bft) 93,62 %
01.04.2022 07:02 0,9 C 0,6 C -2,2 C 92 % 1003,8 hPa 0,0 l/m 0 min 0 min 0 W/m 41,8 km/h (6 Bft) 95,65 %
01.04.2022 07:04 0,9 C 0,6 C -2,2 C 92 % 1003,9 hPa 0,0 l/m 0 min 0 min 0 W/m 32,2 km/h (5 Bft) 95,74 %
01.04.2022 07:06 0,9 C 0,6 C -2,2 C 92 % 1003,9 hPa 0,0 l/m 0 min 0 min 0 W/m 32,2 km/h (5 Bft) 95,74 %
01.04.2022 07:08 0,9 C 0,6 C -2,2 C 92 % 1003,9 hPa 0,0 l/m 0 min 0 min 0 W/m 32,2 km/h (5 Bft) 95,74 %
01.04.2022 07:10 0,9 C 0,6 C -2,2 C 92 % 1004,0 hPa 0,0 l/m 0 min 0 min 0 W/m 25,7 km/h (4 Bft) 90,00 %
01.04.2022 07:12 0,9 C 0,6 C -2,2 C 92 % 1004,0 hPa 0,0 l/m 0 min 0 min 0 W/m 32,2 km/h (5 Bft) 95,65 %
01.04.2022 07:14 0,9 C 0,6 C -2,2 C 92 % 1004,0 hPa 0,0 l/m 0 min 0 min 0 W/m 35,4 km/h (5 Bft) 93,62 %
01.04.2022 07:16 0,9 C 0,6 C -2,2 C 92 % 1004,0 hPa 0,0 l/m 0 min 0 min 0 W/m 22,5 km/h (4 Bft) 97,87 %
01.04.2022 07:18 0,9 C 0,6 C -2,2 C 92 % 1004,1 hPa 0,0 l/m 0 min 0 min 0 W/m 19,3 km/h (3 Bft) 97,87 %
01.04.2022 07:20 0,9 C 0,6 C -2,2 C 92 % 1004,1 hPa 0,0 l/m 0 min 0 min 0 W/m 29,0 km/h (5 Bft) 95,74 %
01.04.2022 07:22 0,9 C 0,6 C -2,2 C 92 % 1004,1 hPa 0,0 l/m 0 min 0 min 0 W/m 22,5 km/h (4 Bft) 95,74 %
01.04.2022 07:24 0,9 C 0,6 C -2,2 C 92 % 1004,3 hPa 0,0 l/m 0 min 0 min 0 W/m 38,6 km/h (5 Bft) 97,83 %
01.04.2022 07:26 0,9 C 0,6 C -2,2 C 92 % 1004,2 hPa 0,0 l/m 0 min 0 min 0 W/m 25,7 km/h (4 Bft) 97,87 %
01.04.2022 07:28 0,9 C 0,6 C -2,2 C 92 % 1004,3 hPa 0,0 l/m 0 min 0 min 0 W/m 29,0 km/h (5 Bft) 95,74 %
01.04.2022 07:30 0,9 C 0,6 C -2,2 C 92 % 1004,3 hPa 0,2 l/m 0 min 0 min 0 W/m 32,2 km/h (5 Bft) 97,87 %
01.04.2022 07:32 0,9 C 0,6 C -2,2 C 92 % 1004,3 hPa 0,0 l/m 0 min 0 min 0 W/m 25,7 km/h (4 Bft) 95,74 %
01.04.2022 07:34 0,9 C 0,6 C -2,2 C 92 % 1004,3 hPa 0,0 l/m 0 min 0 min 0 W/m 19,3 km/h (3 Bft) 95,74 %
01.04.2022 07:36 0,9 C 0,6 C -2,2 C 92 % 1004,3 hPa 0,0 l/m 0 min 0 min 0 W/m 25,7 km/h (4 Bft) 95,65 %
01.04.2022 07:38 0,9 C 0,6 C -2,2 C 92 % 1004,4 hPa 0,0 l/m 0 min 0 min 5 W/m 29,0 km/h (5 Bft) 97,87 %
01.04.2022 07:40 0,9 C 0,6 C -2,2 C 92 % 1004,4 hPa 0,0 l/m 0 min 0 min 5 W/m 29,0 km/h (5 Bft) 95,74 %
01.04.2022 07:42 0,9 C 0,6 C -2,2 C 91 % 1004,4 hPa 0,0 l/m 0 min 0 min 5 W/m 22,5 km/h (4 Bft) 97,87 %
01.04.2022 07:44 0,9 C 0,6 C -2,2 C 91 % 1004,5 hPa 0,0 l/m 0 min 0 min 5 W/m 29,0 km/h (5 Bft) 97,87 %
01.04.2022 07:46 0,9 C 0,6 C -2,2 C 91 % 1004,5 hPa 0,0 l/m 0 min 0 min 5 W/m 29,0 km/h (5 Bft) 98,08 %
01.04.2022 07:48 0,9 C 0,6 C -2,2 C 91 % 1004,6 hPa 0,0 l/m 0 min 0 min 5 W/m 29,0 km/h (5 Bft) 97,87 %
01.04.2022 07:50 0,9 C 0,6 C -2,2 C 91 % 1004,6 hPa 0,0 l/m 0 min 0 min 6 W/m 32,2 km/h (5 Bft) 97,87 %
01.04.2022 07:52 0,9 C 0,6 C -2,2 C 91 % 1004,7 hPa 0,0 l/m 0 min 0 min 6 W/m 22,5 km/h (4 Bft) 95,74 %
01.04.2022 07:54 1,0 C 0,6 C -2,2 C 91 % 1004,7 hPa 0,0 l/m 0 min 0 min 5 W/m 22,5 km/h (4 Bft) 97,87 %
01.04.2022 07:56 1,0 C 0,6 C -2,2 C 91 % 1004,8 hPa 0,0 l/m 0 min 0 min 6 W/m 16,1 km/h (3 Bft) 95,65 %
01.04.2022 07:58 1,0 C 0,6 C -2,2 C 91 % 1004,8 hPa 0,0 l/m 0 min 0 min 5 W/m 16,1 km/h (3 Bft) 97,87 %
01.04.2022 08:00 1,0 C 0,6 C -2,2 C 91 % 1004,8 hPa 0,0 l/m 0 min 0 min 5 W/m 16,1 km/h (3 Bft) 97,87 %
01.04.2022 08:02 1,0 C 0,6 C -2,2 C 91 % 1004,8 hPa 0,0 l/m 0 min 0 min 6 W/m 19,3 km/h (3 Bft) 97,87 %
01.04.2022 08:04 1,0 C 0,6 C -2,2 C 91 % 1004,8 hPa 0,0 l/m 0 min 0 min 7 W/m 12,9 km/h (3 Bft) 97,87 %
01.04.2022 08:06 1,0 C 0,6 C -2,2 C 91 % 1004,9 hPa 0,0 l/m 0 min 0 min 7 W/m 22,5 km/h (4 Bft) 97,87 %
01.04.2022 08:08 1,0 C 0,6 C -2,2 C 91 % 1004,9 hPa 0,0 l/m 0 min 0 min 7 W/m 16,1 km/h (3 Bft) 100,00 %
01.04.2022 08:10 1,0 C 0,6 C -2,2 C 91 % 1004,9 hPa 0,0 l/m 0 min 0 min 9 W/m 19,3 km/h (3 Bft) 100,00 %
01.04.2022 08:12 1,0 C 0,6 C -2,2 C 91 % 1004,9 hPa 0,0 l/m 0 min 0 min 9 W/m 16,1 km/h (3 Bft) 100,00 %
01.04.2022 08:14 1,0 C 0,6 C -2,2 C 91 % 1005,0 hPa 0,0 l/m 0 min 0 min 9 W/m 25,7 km/h (4 Bft) 100,00 %
01.04.2022 08:16 1,0 C 0,6 C -2,2 C 91 % 1005,0 hPa 0,0 l/m 0 min 0 min 12 W/m 25,7 km/h (4 Bft) 97,87 %
01.04.2022 08:18 1,0 C 0,6 C -2,2 C 91 % 1005,0 hPa 0,0 l/m 0 min 0 min 12 W/m 29,0 km/h (5 Bft) 100,00 %
01.04.2022 08:20 1,0 C 0,6 C -2,2 C 91 % 1005,1 hPa 0,0 l/m 0 min 0 min 12 W/m 19,3 km/h (3 Bft) 100,00 %
01.04.2022 08:22 1,1 C 0,6 C -2,2 C 91 % 1005,1 hPa 0,0 l/m 0 min 0 min 12 W/m 32,2 km/h (5 Bft) 100,00 %
01.04.2022 08:24 1,1 C 0,6 C -2,2 C 91 % 1005,1 hPa 0,0 l/m 0 min 0 min 12 W/m 12,9 km/h (3 Bft) 100,00 %
01.04.2022 08:26 1,0 C 0,6 C -2,2 C 91 % 1005,1 hPa 0,0 l/m 0 min 0 min 14 W/m 25,7 km/h (4 Bft) 100,00 %
01.04.2022 08:28 1,0 C 0,6 C -2,2 C 91 % 1005,1 hPa 0,0 l/m 0 min 0 min 16 W/m 25,7 km/h (4 Bft) 100,00 %
01.04.2022 08:30 1,0 C 0,6 C -2,2 C 91 % 1005,2 hPa 0,0 l/m 0 min 0 min 18 W/m 35,4 km/h (5 Bft) 100,00 %
01.04.2022 08:32 1,0 C 0,6 C -2,2 C 91 % 1005,2 hPa 0,0 l/m 0 min 0 min 19 W/m 25,7 km/h (4 Bft) 100,00 %
01.04.2022 08:34 1,0 C 0,6 C -2,2 C 90 % 1005,2 hPa 0,0 l/m 0 min 0 min 20 W/m 19,3 km/h (3 Bft) 100,00 %
01.04.2022 08:36 1,0 C 0,6 C -2,2 C 90 % 1005,2 hPa 0,0 l/m 0 min 0 min 23 W/m 19,3 km/h (3 Bft) 40,00 %
01.04.2022 08:38 1,0 C 0,6 C -2,2 C 90 % 1005,2 hPa 0,0 l/m 0 min 0 min 25 W/m 32,2 km/h (5 Bft) 100,00 %
01.04.2022 08:40 1,1 C 0,6 C -2,2 C 90 % 1005,3 hPa 0,0 l/m 0 min 0 min 26 W/m 22,5 km/h (4 Bft) 100,00 %
01.04.2022 08:42 1,1 C 0,6 C -2,2 C 90 % 1005,4 hPa 0,0 l/m 0 min 0 min 27 W/m 22,5 km/h (4 Bft) 97,87 %
01.04.2022 08:44 1,1 C 0,6 C -2,2 C 90 % 1005,4 hPa 0,0 l/m 0 min 0 min 25 W/m 29,0 km/h (5 Bft) 97,87 %
01.04.2022 08:46 1,1 C 0,6 C -2,2 C 90 % 1005,4 hPa 0,0 l/m 0 min 0 min 25 W/m 16,1 km/h (3 Bft) 100,00 %
01.04.2022 08:48 1,1 C 0,6 C -2,2 C 90 % 1005,4 hPa 0,0 l/m 0 min 0 min 25 W/m 16,1 km/h (3 Bft) 100,00 %
01.04.2022 08:50 1,1 C 0,6 C -2,2 C 90 % 1005,5 hPa 0,0 l/m 0 min 0 min 26 W/m 29,0 km/h (5 Bft) 97,87 %
01.04.2022 08:52 1,1 C 0,6 C -2,2 C 90 % 1005,5 hPa 0,0 l/m 0 min 0 min 25 W/m 22,5 km/h (4 Bft) 97,87 %
01.04.2022 08:54 1,1 C 0,6 C -2,2 C 90 % 1005,6 hPa 0,0 l/m 0 min 0 min 22 W/m 22,5 km/h (4 Bft) 97,87 %
01.04.2022 08:56 1,1 C 0,6 C -2,2 C 90 % 1005,6 hPa 0,0 l/m 0 min 0 min 23 W/m 16,1 km/h (3 Bft) 97,83 %
01.04.2022 08:58 1,1 C 0,6 C -2,2 C 90 % 1005,7 hPa 0,0 l/m 0 min 0 min 23 W/m 25,7 km/h (4 Bft) 97,87 %
01.04.2022 09:00 1,1 C 0,6 C -2,2 C 90 % 1005,6 hPa 0,0 l/m 0 min 0 min 22 W/m 19,3 km/h (3 Bft) 97,87 %
01.04.2022 09:02 1,1 C 0,6 C -2,2 C 90 % 1005,6 hPa 0,0 l/m 0 min 0 min 22 W/m 19,3 km/h (3 Bft) 97,87 %
01.04.2022 09:04 1,1 C 0,6 C -2,2 C 90 % 1005,7 hPa 0,0 l/m 0 min 0 min 18 W/m 19,3 km/h (3 Bft) 97,87 %
01.04.2022 09:06 1,1 C 0,6 C -2,2 C 90 % 1005,7 hPa 0,0 l/m 0 min 0 min 18 W/m 22,5 km/h (4 Bft) 97,87 %
01.04.2022 09:08 1,1 C 0,6 C -2,2 C 90 % 1005,7 hPa 0,0 l/m 0 min 0 min 24 W/m 22,5 km/h (4 Bft) 97,83 %
01.04.2022 09:10 1,1 C 0,6 C -2,2 C 90 % 1005,8 hPa 0,0 l/m 0 min 0 min 26 W/m 22,5 km/h (4 Bft) 97,87 %
01.04.2022 09:12 1,0 C 0,6 C -2,2 C 89 % 1005,8 hPa 0,0 l/m 0 min 0 min 25 W/m 25,7 km/h (4 Bft) 97,73 %
01.04.2022 09:14 1,0 C 0,6 C -2,2 C 89 % 1005,8 hPa 0,0 l/m 0 min 0 min 25 W/m 41,8 km/h (6 Bft) 98,00 %
01.04.2022 09:16 1,0 C 0,6 C -2,2 C 89 % 1005,9 hPa 0,0 l/m 0 min 0 min 25 W/m 22,5 km/h (4 Bft) 96,23 %
01.04.2022 09:18 1,0 C 0,6 C -2,2 C 89 % 1005,9 hPa 0,0 l/m 0 min 0 min 22 W/m 32,2 km/h (5 Bft) 97,37 %
01.04.2022 09:20 1,0 C 0,6 C -2,2 C 89 % 1005,9 hPa 0,0 l/m 0 min 0 min 20 W/m 19,3 km/h (3 Bft) 93,88 %
01.04.2022 09:22 1,0 C 0,6 C -2,2 C 89 % 1005,9 hPa 0,0 l/m 0 min 0 min 19 W/m 12,9 km/h (3 Bft) 93,62 %
01.04.2022 09:24 1,0 C 0,6 C -2,2 C 89 % 1006,0 hPa 0,0 l/m 0 min 0 min 19 W/m 19,3 km/h (3 Bft) 97,73 %
01.04.2022 09:26 1,0 C 0,6 C -2,2 C 89 % 1006,0 hPa 0,0 l/m 0 min 0 min 23 W/m 41,8 km/h (6 Bft) 98,00 %
01.04.2022 09:30 1,0 C 0,6 C -2,2 C 89 % 1006,0 hPa 0,0 l/m 0 min 0 min 22 W/m 25,7 km/h (4 Bft) 95,35 %
01.04.2022 09:32 0,9 C 0,6 C -2,2 C 89 % 1006,0 hPa 0,0 l/m 0 min 0 min 25 W/m 29,0 km/h (5 Bft) 95,74 %
01.04.2022 09:34 1,0 C 0,6 C -2,2 C 89 % 1006,1 hPa 0,0 l/m 0 min 0 min 31 W/m 29,0 km/h (5 Bft) 95,74 %
01.04.2022 09:36 1,0 C 0,6 C -2,2 C 89 % 1006,1 hPa 0,0 l/m 0 min 0 min 29 W/m 19,3 km/h (3 Bft) 94,92 %
01.04.2022 09:38 1,0 C 0,6 C -2,2 C 89 % 1006,1 hPa 0,0 l/m 0 min 0 min 28 W/m 48,3 km/h (6 Bft) 97,14 %
01.04.2022 09:40 0,9 C 0,6 C -2,2 C 89 % 1006,2 hPa 0,0 l/m 0 min 0 min 30 W/m 45,1 km/h (6 Bft) 97,87 %
01.04.2022 09:42 1,0 C 0,6 C -2,2 C 89 % 1006,2 hPa 0,0 l/m 0 min 0 min 27 W/m 25,7 km/h (4 Bft) 100,00 %
01.04.2022 09:44 1,0 C 0,6 C -2,2 C 89 % 1006,2 hPa 0,0 l/m 0 min 0 min 29 W/m 25,7 km/h (4 Bft) 100,00 %
01.04.2022 09:46 1,0 C 0,6 C -2,2 C 89 % 1006,2 hPa 0,0 l/m 0 min 0 min 27 W/m 25,7 km/h (4 Bft) 95,74 %
01.04.2022 09:48 1,0 C 0,6 C -2,2 C 89 % 1006,3 hPa 0,0 l/m 0 min 0 min 30 W/m 32,2 km/h (5 Bft) 97,87 %
01.04.2022 09:50 1,0 C 0,6 C -2,2 C 89 % 1006,3 hPa 0,0 l/m 0 min 0 min 27 W/m 35,4 km/h (5 Bft) 97,87 %
01.04.2022 09:52 1,0 C 0,6 C -2,2 C 89 % 1006,3 hPa 0,0 l/m 0 min 0 min 24 W/m 35,4 km/h (5 Bft) 95,74 %
01.04.2022 09:54 1,0 C 0,6 C -2,2 C 88 % 1006,3 hPa 0,0 l/m 0 min 0 min 31 W/m 35,4 km/h (5 Bft) 97,83 %
01.04.2022 09:56 1,0 C 0,6 C -2,2 C 88 % 1006,4 hPa 0,0 l/m 0 min 0 min 34 W/m 19,3 km/h (3 Bft) 97,87 %
01.04.2022 09:58 1,0 C 0,6 C -2,2 C 88 % 1006,5 hPa 0,0 l/m 0 min 0 min 35 W/m 19,3 km/h (3 Bft) 97,56 %
01.04.2022 10:00 1,0 C 0,6 C -2,2 C 88 % 1006,5 hPa 0,0 l/m 0 min 0 min 37 W/m 19,3 km/h (3 Bft) 100,00 %
01.04.2022 10:02 1,0 C 0,6 C -2,2 C 88 % 1006,5 hPa 0,0 l/m 0 min 0 min 35 W/m 19,3 km/h (3 Bft) 98,00 %
01.04.2022 10:04 1,0 C 0,6 C -2,2 C 89 % 1006,5 hPa 0,0 l/m 0 min 0 min 34 W/m 25,7 km/h (4 Bft) 98,00 %
01.04.2022 10:06 1,0 C 0,6 C -2,2 C 88 % 1006,5 hPa 0,0 l/m 0 min 0 min 38 W/m 19,3 km/h (3 Bft) 95,65 %
01.04.2022 10:08 1,1 C 0,6 C -1,7 C 88 % 1006,6 hPa 0,0 l/m 0 min 0 min 36 W/m 16,1 km/h (3 Bft) 97,87 %
01.04.2022 10:10 1,1 C 0,6 C -1,7 C 88 % 1006,6 hPa 0,0 l/m 0 min 0 min 33 W/m 16,1 km/h (3 Bft) 97,87 %
01.04.2022 10:12 1,1 C 0,6 C -1,7 C 88 % 1006,6 hPa 0,0 l/m 0 min 0 min 36 W/m 38,6 km/h (5 Bft) 97,87 %
01.04.2022 10:14 1,1 C 0,6 C -2,2 C 88 % 1006,6 hPa 0,0 l/m 0 min 0 min 35 W/m 29,0 km/h (5 Bft) 97,87 %
01.04.2022 10:16 1,0 C 0,6 C -2,2 C 88 % 1006,6 hPa 0,0 l/m 0 min 0 min 37 W/m 35,4 km/h (5 Bft) 97,87 %
01.04.2022 10:18 1,0 C 0,6 C -2,2 C 88 % 1006,7 hPa 0,0 l/m 0 min 0 min 40 W/m 19,3 km/h (3 Bft) 97,83 %
01.04.2022 10:20 1,1 C 0,6 C -2,2 C 88 % 1006,7 hPa 0,0 l/m 0 min 0 min 34 W/m 19,3 km/h (3 Bft) 97,87 %
01.04.2022 10:22 1,1 C 0,6 C -2,2 C 88 % 1006,8 hPa 0,0 l/m 0 min 0 min 35 W/m 32,2 km/h (5 Bft) 97,87 %
01.04.2022 10:24 1,1 C 0,6 C -2,2 C 88 % 1006,8 hPa 0,0 l/m 0 min 0 min 33 W/m 25,7 km/h (4 Bft) 93,62 %
01.04.2022 10:26 1,0 C 0,6 C -2,2 C 88 % 1006,7 hPa 0,0 l/m 0 min 0 min 34 W/m 35,4 km/h (5 Bft) 97,87 %
01.04.2022 10:28 1,0 C 0,6 C -2,2 C 88 % 1006,8 hPa 0,0 l/m 0 min 0 min 37 W/m 35,4 km/h (5 Bft) 97,87 %
01.04.2022 10:30 1,0 C 0,6 C -2,2 C 88 % 1006,9 hPa 0,0 l/m 0 min 0 min 35 W/m 32,2 km/h (5 Bft) 97,83 %
01.04.2022 10:32 1,0 C 0,6 C -2,2 C 88 % 1006,9 hPa 0,0 l/m 0 min 0 min 31 W/m 16,1 km/h (3 Bft) 97,87 %
01.04.2022 10:34 1,1 C 0,6 C -2,2 C 87 % 1006,9 hPa 0,0 l/m 0 min 0 min 30 W/m 25,7 km/h (4 Bft) 97,87 %
01.04.2022 10:36 1,0 C 0,6 C -2,2 C 87 % 1006,9 hPa 0,0 l/m 0 min 0 min 31 W/m 32,2 km/h (5 Bft) 97,87 %
01.04.2022 10:38 1,1 C 0,6 C -2,2 C 87 % 1006,9 hPa 0,0 l/m 0 min 0 min 30 W/m 16,1 km/h (3 Bft) 97,87 %
01.04.2022 10:40 1,1 C 0,6 C -2,2 C 87 % 1007,0 hPa 0,0 l/m 0 min 0 min 27 W/m 16,1 km/h (3 Bft) 95,74 %
01.04.2022 10:42 1,1 C 0,6 C -2,2 C 87 % 1007,0 hPa 0,0 l/m 0 min 0 min 26 W/m 22,5 km/h (4 Bft) 91,30 %
01.04.2022 10:44 1,1 C 0,6 C -2,2 C 87 % 1007,0 hPa 0,0 l/m 0 min 0 min 29 W/m 19,3 km/h (3 Bft) 97,87 %
01.04.2022 10:46 1,1 C 0,6 C -2,2 C 87 % 1007,0 hPa 0,0 l/m 0 min 0 min 33 W/m 25,7 km/h (4 Bft) 97,87 %
01.04.2022 10:48 1,1 C 0,6 C -2,2 C 87 % 1007,1 hPa 0,0 l/m 0 min 0 min 30 W/m 16,1 km/h (3 Bft) 97,87 %
01.04.2022 10:50 1,1 C 0,6 C -2,2 C 87 % 1007,1 hPa 0,0 l/m 0 min 0 min 27 W/m 16,1 km/h (3 Bft) 97,87 %
01.04.2022 10:52 1,1 C 0,6 C -1,7 C 87 % 1007,2 hPa 0,0 l/m 0 min 0 min 25 W/m 22,5 km/h (4 Bft) 100,00 %
01.04.2022 10:54 1,1 C 0,6 C -1,7 C 87 % 1007,1 hPa 0,0 l/m 0 min 0 min 25 W/m 29,0 km/h (5 Bft) 97,83 %
01.04.2022 10:56 1,1 C 0,6 C -2,2 C 87 % 1007,2 hPa 0,0 l/m 0 min 0 min 26 W/m 29,0 km/h (5 Bft) 95,74 %
01.04.2022 10:58 1,1 C 0,6 C -2,2 C 87 % 1007,2 hPa 0,0 l/m 0 min 0 min 25 W/m 32,2 km/h (5 Bft) 100,00 %
01.04.2022 11:00 1,1 C 0,6 C -2,2 C 87 % 1007,3 hPa 0,0 l/m 0 min 0 min 24 W/m 25,7 km/h (4 Bft) 100,00 %
01.04.2022 11:02 1,1 C 0,6 C -2,2 C 87 % 1007,3 hPa 0,0 l/m 0 min 0 min 21 W/m 35,4 km/h (5 Bft) 95,45 %
01.04.2022 11:04 1,1 C 0,6 C -2,2 C 87 % 1007,3 hPa 0,0 l/m 0 min 0 min 22 W/m 25,7 km/h (4 Bft) 97,96 %
01.04.2022 11:06 1,1 C 0,6 C -2,2 C 87 % 1007,3 hPa 0,0 l/m 0 min 0 min 23 W/m 35,4 km/h (5 Bft) 97,87 %
01.04.2022 11:08 1,1 C 0,6 C -2,2 C 87 % 1007,4 hPa 0,0 l/m 0 min 0 min 23 W/m 25,7 km/h (4 Bft) 97,87 %
01.04.2022 11:10 1,1 C 0,6 C -2,2 C 87 % 1007,5 hPa 0,0 l/m 0 min 0 min 23 W/m 25,7 km/h (4 Bft) 97,87 %
01.04.2022 11:12 1,1 C 0,6 C -2,2 C 87 % 1007,5 hPa 0,0 l/m 0 min 0 min 25 W/m 19,3 km/h (3 Bft) 97,87 %
01.04.2022 11:14 1,1 C 0,6 C -2,2 C 87 % 1007,5 hPa 0,0 l/m 0 min 0 min 24 W/m 22,5 km/h (4 Bft) 100,00 %
01.04.2022 11:16 1,1 C 0,6 C -2,2 C 87 % 1007,5 hPa 0,0 l/m 0 min 0 min 26 W/m 16,1 km/h (3 Bft) 100,00 %
01.04.2022 11:18 1,1 C 0,6 C -2,2 C 87 % 1007,4 hPa 0,0 l/m 0 min 0 min 27 W/m 29,0 km/h (5 Bft) 97,87 %
01.04.2022 11:20 1,1 C 0,6 C -2,2 C 87 % 1007,5 hPa 0,0 l/m 0 min 0 min 27 W/m 25,7 km/h (4 Bft) 97,87 %
01.04.2022 11:22 1,1 C 0,6 C -2,2 C 86 % 1007,5 hPa 0,0 l/m 0 min 0 min 28 W/m 38,6 km/h (5 Bft) 97,87 %
01.04.2022 11:24 1,1 C 0,6 C -2,2 C 86 % 1007,5 hPa 0,0 l/m 0 min 0 min 29 W/m 25,7 km/h (4 Bft) 97,87 %
01.04.2022 11:26 1,1 C 0,6 C -2,2 C 86 % 1007,5 hPa 0,0 l/m 0 min 0 min 32 W/m 19,3 km/h (3 Bft) 95,74 %
01.04.2022 11:28 1,1 C 0,6 C -2,2 C 86 % 1007,6 hPa 0,0 l/m 0 min 0 min 36 W/m 22,5 km/h (4 Bft) 93,48 %
01.04.2022 11:30 1,1 C 0,6 C -2,2 C 86 % 1007,6 hPa 0,0 l/m 0 min 0 min 37 W/m 35,4 km/h (5 Bft) 95,74 %
01.04.2022 11:32 1,1 C 0,6 C -2,2 C 86 % 1007,6 hPa 0,0 l/m 0 min 0 min 34 W/m 48,3 km/h (6 Bft) 95,74 %
01.04.2022 11:34 1,1 C 0,6 C -2,2 C 85 % 1007,6 hPa 0,0 l/m 0 min 0 min 36 W/m 35,4 km/h (5 Bft) 97,87 %
01.04.2022 11:36 1,1 C 1,1 C -2,2 C 85 % 1007,6 hPa 0,0 l/m 0 min 0 min 40 W/m 29,0 km/h (5 Bft) 95,74 %
01.04.2022 11:38 1,2 C 1,1 C -1,7 C 85 % 1007,7 hPa 0,0 l/m 0 min 0 min 44 W/m 22,5 km/h (4 Bft) 95,74 %
01.04.2022 11:40 1,2 C 1,1 C -1,7 C 85 % 1007,7 hPa 0,0 l/m 0 min 0 min 42 W/m 22,5 km/h (4 Bft) 93,48 %
01.04.2022 11:42 1,2 C 1,1 C -1,7 C 85 % 1007,7 hPa 0,0 l/m 0 min 0 min 46 W/m 16,1 km/h (3 Bft) 93,62 %
01.04.2022 11:44 1,2 C 1,1 C -1,7 C 85 % 1007,8 hPa 0,0 l/m 0 min 0 min 48 W/m 22,5 km/h (4 Bft) 93,62 %
01.04.2022 11:46 1,2 C 1,1 C -1,7 C 85 % 1007,7 hPa 0,0 l/m 0 min 0 min 47 W/m 25,7 km/h (4 Bft) 95,74 %
01.04.2022 11:48 1,3 C 1,1 C -1,7 C 85 % 1007,8 hPa 0,0 l/m 0 min 0 min 43 W/m 25,7 km/h (4 Bft) 95,74 %
01.04.2022 11:50 1,3 C 1,1 C -1,7 C 85 % 1007,8 hPa 0,0 l/m 0 min 0 min 38 W/m 16,1 km/h (3 Bft) 95,74 %
01.04.2022 11:52 1,3 C 1,1 C -1,7 C 85 % 1007,8 hPa 0,0 l/m 0 min 0 min 35 W/m 29,0 km/h (5 Bft) 95,65 %
01.04.2022 11:54 1,3 C 1,1 C -1,7 C 85 % 1007,8 hPa 0,0 l/m 0 min 0 min 38 W/m 35,4 km/h (5 Bft) 95,74 %
01.04.2022 11:56 1,3 C 1,1 C -1,7 C 85 % 1007,8 hPa 0,0 l/m 0 min 0 min 46 W/m 22,5 km/h (4 Bft) 97,87 %
01.04.2022 11:58 1,3 C 1,1 C -1,7 C 85 % 1007,8 hPa 0,0 l/m 0 min 0 min 47 W/m 22,5 km/h (4 Bft) 97,87 %
01.04.2022 12:00 1,3 C 1,1 C -1,7 C 85 % 1007,9 hPa 0,0 l/m 0 min 0 min 47 W/m 19,3 km/h (3 Bft) 97,87 %
01.04.2022 12:02 1,3 C 1,1 C -1,7 C 85 % 1008,0 hPa 0,0 l/m 0 min 0 min 50 W/m 22,5 km/h (4 Bft) 95,45 %
01.04.2022 12:04 1,3 C 1,1 C -1,7 C 85 % 1007,9 hPa 0,0 l/m 0 min 0 min 55 W/m 29,0 km/h (5 Bft) 95,92 %
01.04.2022 12:08 1,3 C 1,1 C -1,7 C 85 % 1007,9 hPa 0,0 l/m 0 min 0 min 59 W/m 32,2 km/h (5 Bft) 97,87 %
01.04.2022 12:10 1,3 C 1,1 C -1,7 C 84 % 1008,0 hPa 0,0 l/m 0 min 0 min 56 W/m 29,0 km/h (5 Bft) 100,00 %
01.04.2022 12:12 1,3 C 1,1 C -1,7 C 84 % 1008,0 hPa 0,0 l/m 0 min 0 min 49 W/m 19,3 km/h (3 Bft) 100,00 %
01.04.2022 12:14 1,3 C 1,1 C -1,7 C 84 % 1008,0 hPa 0,0 l/m 0 min 0 min 51 W/m 22,5 km/h (4 Bft) 100,00 %
01.04.2022 12:16 1,3 C 1,1 C -1,7 C 84 % 1008,0 hPa 0,0 l/m 0 min 0 min 53 W/m 22,5 km/h (4 Bft) 100,00 %
01.04.2022 12:18 1,3 C 1,1 C -1,7 C 84 % 1008,0 hPa 0,0 l/m 0 min 0 min 52 W/m 12,9 km/h (3 Bft) 100,00 %
01.04.2022 12:20 1,3 C 1,1 C -1,7 C 84 % 1008,0 hPa 0,0 l/m 0 min 0 min 57 W/m 22,5 km/h (4 Bft) 100,00 %
01.04.2022 12:22 1,3 C 1,1 C -1,7 C 84 % 1008,1 hPa 0,0 l/m 0 min 0 min 53 W/m 19,3 km/h (3 Bft) 97,87 %
01.04.2022 12:24 1,4 C 1,1 C -1,7 C 84 % 1008,0 hPa 0,0 l/m 0 min 0 min 49 W/m 19,3 km/h (3 Bft) 97,87 %
01.04.2022 12:26 1,4 C 1,1 C -1,7 C 84 % 1008,0 hPa 0,0 l/m 0 min 0 min 50 W/m 12,9 km/h (3 Bft) 100,00 %
01.04.2022 12:28 1,4 C 1,1 C -1,7 C 85 % 1008,1 hPa 0,0 l/m 0 min 0 min 55 W/m 29,0 km/h (5 Bft) 97,87 %
01.04.2022 12:30 1,4 C 1,1 C -1,7 C 84 % 1008,0 hPa 0,0 l/m 0 min 0 min 61 W/m 25,7 km/h (4 Bft) 100,00 %
01.04.2022 12:32 1,4 C 1,1 C -1,7 C 84 % 1008,0 hPa 0,0 l/m 0 min 0 min 62 W/m 38,6 km/h (5 Bft) 100,00 %
01.04.2022 12:34 1,4 C 1,1 C -1,7 C 84 % 1008,1 hPa 0,0 l/m 0 min 0 min 63 W/m 22,5 km/h (4 Bft) 100,00 %
01.04.2022 12:36 1,4 C 1,1 C -1,7 C 84 % 1008,1 hPa 0,0 l/m 0 min 0 min 61 W/m 19,3 km/h (3 Bft) 100,00 %
01.04.2022 12:38 1,4 C 1,1 C -1,7 C 84 % 1008,2 hPa 0,0 l/m 0 min 0 min 54 W/m 22,5 km/h (4 Bft) 100,00 %
01.04.2022 12:40 1,4 C 1,1 C -1,7 C 84 % 1008,2 hPa 0,0 l/m 0 min 0 min 55 W/m 38,6 km/h (5 Bft) 100,00 %
01.04.2022 12:42 1,4 C 1,1 C -1,7 C 83 % 1008,2 hPa 0,0 l/m 0 min 0 min 51 W/m 29,0 km/h (5 Bft) 93,62 %
01.04.2022 12:44 1,4 C 1,1 C -1,7 C 83 % 1008,2 hPa 0,0 l/m 0 min 0 min 48 W/m 16,1 km/h (3 Bft) 100,00 %
01.04.2022 12:46 1,4 C 1,1 C -1,7 C 83 % 1008,2 hPa 0,0 l/m 0 min 0 min 47 W/m 12,9 km/h (3 Bft) 95,74 %
01.04.2022 12:48 1,4 C 1,1 C -1,7 C 83 % 1008,2 hPa 0,0 l/m 0 min 0 min 45 W/m 29,0 km/h (5 Bft) 100,00 %
01.04.2022 12:50 1,4 C 1,1 C -1,7 C 83 % 1008,2 hPa 0,0 l/m 0 min 0 min 49 W/m 12,9 km/h (3 Bft) 100,00 %
01.04.2022 12:52 1,4 C 1,1 C -1,7 C 83 % 1008,2 hPa 0,0 l/m 0 min 0 min 50 W/m 35,4 km/h (5 Bft) 100,00 %
01.04.2022 12:54 1,5 C 1,1 C -1,7 C 84 % 1008,2 hPa 0,0 l/m 0 min 0 min 49 W/m 32,2 km/h (5 Bft) 97,87 %
01.04.2022 12:56 1,4 C 1,1 C -1,7 C 84 % 1008,2 hPa 0,0 l/m 0 min 0 min 55 W/m 19,3 km/h (3 Bft) 100,00 %
01.04.2022 12:58 1,5 C 1,1 C -1,7 C 84 % 1008,2 hPa 0,0 l/m 0 min 0 min 51 W/m 9,7 km/h (2 Bft) 98,00 %
01.04.2022 13:00 1,5 C 1,1 C -1,7 C 84 % 1008,2 hPa 0,0 l/m 0 min 0 min 53 W/m 32,2 km/h (5 Bft) 97,83 %
01.04.2022 13:02 1,5 C 1,1 C -1,7 C 84 % 1008,2 hPa 0,0 l/m 0 min 0 min 58 W/m 29,0 km/h (5 Bft) 97,92 %
01.04.2022 13:04 1,5 C 1,1 C -1,7 C 84 % 1008,2 hPa 0,0 l/m 0 min 0 min 51 W/m 19,3 km/h (3 Bft) 97,87 %
01.04.2022 13:06 1,5 C 1,1 C -1,7 C 84 % 1008,3 hPa 0,0 l/m 0 min 0 min 50 W/m 22,5 km/h (4 Bft) 97,87 %
01.04.2022 13:08 1,5 C 1,1 C -1,7 C 84 % 1008,3 hPa 0,0 l/m 0 min 0 min 51 W/m 38,6 km/h (5 Bft) 97,87 %
01.04.2022 13:10 1,5 C 1,1 C -1,7 C 83 % 1008,3 hPa 0,0 l/m 0 min 0 min 53 W/m 19,3 km/h (3 Bft) 95,74 %
01.04.2022 13:12 1,5 C 1,1 C -1,7 C 83 % 1008,3 hPa 0,0 l/m 0 min 0 min 54 W/m 29,0 km/h (5 Bft) 97,83 %
01.04.2022 13:14 1,5 C 1,1 C -1,7 C 83 % 1008,2 hPa 0,0 l/m 0 min 0 min 52 W/m 35,4 km/h (5 Bft) 97,87 %
01.04.2022 13:16 1,5 C 1,1 C -1,7 C 83 % 1008,2 hPa 0,0 l/m 0 min 0 min 54 W/m 32,2 km/h (5 Bft) 93,62 %
01.04.2022 13:18 1,5 C 1,1 C -1,7 C 83 % 1008,3 hPa 0,0 l/m 0 min 0 min 57 W/m 16,1 km/h (3 Bft) 95,74 %
01.04.2022 13:20 1,5 C 1,1 C -1,7 C 83 % 1008,3 hPa 0,0 l/m 0 min 0 min 53 W/m 29,0 km/h (5 Bft) 97,87 %
01.04.2022 13:22 1,5 C 1,1 C -1,7 C 83 % 1008,2 hPa 0,0 l/m 0 min 0 min 40 W/m 22,5 km/h (4 Bft) 95,65 %
01.04.2022 13:24 1,6 C 1,1 C -1,7 C 83 % 1008,3 hPa 0,0 l/m 0 min 0 min 39 W/m 19,3 km/h (3 Bft) 93,62 %
01.04.2022 13:26 1,6 C 1,1 C -1,7 C 83 % 1008,3 hPa 0,0 l/m 0 min 0 min 48 W/m 54,7 km/h (7 Bft) 95,74 %
01.04.2022 13:28 1,6 C 1,1 C -1,7 C 83 % 1008,3 hPa 0,0 l/m 0 min 0 min 62 W/m 25,7 km/h (4 Bft) 95,74 %
01.04.2022 13:30 1,6 C 1,7 C -1,7 C 83 % 1008,3 hPa 0,0 l/m 0 min 0 min 64 W/m 29,0 km/h (5 Bft) 95,74 %
01.04.2022 13:32 1,6 C 1,7 C -1,7 C 83 % 1008,3 hPa 0,0 l/m 0 min 0 min 47 W/m 16,1 km/h (3 Bft) 93,75 %
01.04.2022 13:34 1,6 C 1,7 C -1,7 C 83 % 1008,3 hPa 0,0 l/m 0 min 0 min 51 W/m 32,2 km/h (5 Bft) 95,65 %
01.04.2022 13:36 1,7 C 1,7 C -1,7 C 83 % 1008,4 hPa 0,0 l/m 0 min 0 min 56 W/m 25,7 km/h (4 Bft) 95,74 %
01.04.2022 13:38 1,7 C 1,7 C -1,7 C 83 % 1008,4 hPa 0,0 l/m 0 min 0 min 51 W/m 16,1 km/h (3 Bft) 95,74 %
01.04.2022 13:40 1,7 C 1,7 C -1,7 C 83 % 1008,4 hPa 0,0 l/m 0 min 0 min 44 W/m 12,9 km/h (3 Bft) 95,74 %
01.04.2022 13:42 1,7 C 1,7 C -1,7 C 83 % 1008,5 hPa 0,0 l/m 0 min 0 min 48 W/m 16,1 km/h (3 Bft) 95,74 %
01.04.2022 13:44 1,6 C 1,1 C -1,7 C 83 % 1008,4 hPa 0,0 l/m 0 min 0 min 50 W/m 32,2 km/h (5 Bft) 95,74 %
01.04.2022 13:46 1,6 C 1,1 C -1,7 C 83 % 1008,5 hPa 0,0 l/m 0 min 0 min 54 W/m 19,3 km/h (3 Bft) 93,48 %
01.04.2022 13:48 1,6 C 1,7 C -1,7 C 83 % 1008,5 hPa 0,0 l/m 0 min 0 min 50 W/m 22,5 km/h (4 Bft) 97,87 %
01.04.2022 13:50 1,7 C 1,7 C -1,7 C 83 % 1008,5 hPa 0,0 l/m 0 min 0 min 54 W/m 35,4 km/h (5 Bft) 100,00 %
01.04.2022 13:52 1,7 C 1,7 C -1,7 C 83 % 1008,5 hPa 0,0 l/m 0 min 0 min 52 W/m 35,4 km/h (5 Bft) 100,00 %
01.04.2022 13:54 1,7 C 1,7 C -1,7 C 83 % 1008,5 hPa 0,0 l/m 0 min 0 min 50 W/m 32,2 km/h (5 Bft) 95,74 %
01.04.2022 13:56 1,7 C 1,7 C -1,7 C 83 % 1008,6 hPa 0,0 l/m 0 min 0 min 52 W/m 32,2 km/h (5 Bft) 93,62 %
01.04.2022 13:58 1,7 C 1,7 C -1,7 C 83 % 1008,5 hPa 0,0 l/m 0 min 0 min 55 W/m 22,5 km/h (4 Bft) 97,83 %
01.04.2022 14:00 1,7 C 1,7 C -1,7 C 83 % 1008,6 hPa 0,0 l/m 0 min 0 min 43 W/m 35,4 km/h (5 Bft) 97,87 %
01.04.2022 14:02 1,7 C 1,1 C -1,7 C 83 % 1008,6 hPa 0,0 l/m 0 min 0 min 44 W/m 22,5 km/h (4 Bft) 97,87 %
01.04.2022 14:04 1,7 C 1,1 C -1,7 C 83 % 1008,6 hPa 0,0 l/m 0 min 0 min 38 W/m 22,5 km/h (4 Bft) 95,74 %
01.04.2022 14:06 1,7 C 1,1 C -1,7 C 83 % 1008,6 hPa 0,0 l/m 0 min 0 min 36 W/m 32,2 km/h (5 Bft) 95,74 %
01.04.2022 14:08 1,6 C 1,1 C -1,7 C 83 % 1008,8 hPa 0,0 l/m 0 min 0 min 38 W/m 32,2 km/h (5 Bft) 97,87 %
01.04.2022 14:10 1,6 C 1,1 C -1,7 C 83 % 1008,7 hPa 0,0 l/m 0 min 0 min 40 W/m 35,4 km/h (5 Bft) 97,83 %
01.04.2022 14:12 1,6 C 1,1 C -1,7 C 83 % 1008,7 hPa 0,0 l/m 0 min 0 min 37 W/m 29,0 km/h (5 Bft) 97,87 %
01.04.2022 14:14 1,6 C 1,1 C -1,7 C 83 % 1008,6 hPa 0,0 l/m 0 min 0 min 47 W/m 41,8 km/h (6 Bft) 95,74 %
01.04.2022 14:16 1,6 C 1,1 C -1,7 C 83 % 1008,8 hPa 0,0 l/m 0 min 0 min 45 W/m 22,5 km/h (4 Bft) 97,87 %
01.04.2022 14:18 1,6 C 1,1 C -1,7 C 83 % 1008,7 hPa 0,0 l/m 0 min 0 min 46 W/m 32,2 km/h (5 Bft) 97,87 %
01.04.2022 14:20 1,6 C 1,1 C -1,7 C 84 % 1008,7 hPa 0,0 l/m 0 min 0 min 37 W/m 19,3 km/h (3 Bft) 97,87 %
01.04.2022 14:22 1,6 C 1,1 C -1,7 C 84 % 1008,7 hPa 0,0 l/m 0 min 0 min 38 W/m 32,2 km/h (5 Bft) 93,48 %
01.04.2022 14:24 1,6 C 1,1 C -1,7 C 84 % 1008,7 hPa 0,0 l/m 0 min 0 min 44 W/m 38,6 km/h (5 Bft) 97,87 %
01.04.2022 14:26 1,6 C 1,1 C -1,7 C 84 % 1008,7 hPa 0,0 l/m 0 min 0 min 45 W/m 25,7 km/h (4 Bft) 97,87 %
01.04.2022 14:28 1,6 C 1,1 C -1,7 C 84 % 1008,8 hPa 0,0 l/m 0 min 0 min 35 W/m 22,5 km/h (4 Bft) 97,87 %
01.04.2022 14:30 1,6 C 1,1 C -1,7 C 84 % 1008,8 hPa 0,0 l/m 0 min 0 min 44 W/m 25,7 km/h (4 Bft) 97,87 %
01.04.2022 14:32 1,6 C 1,1 C -1,7 C 84 % 1008,7 hPa 0,0 l/m 0 min 0 min 48 W/m 12,9 km/h (3 Bft) 95,74 %
01.04.2022 14:34 1,6 C 1,7 C -1,7 C 84 % 1008,8 hPa 0,0 l/m 0 min 0 min 43 W/m 22,5 km/h (4 Bft) 100,00 %
01.04.2022 14:36 1,6 C 1,1 C -1,7 C 84 % 1008,8 hPa 0,0 l/m 0 min 0 min 50 W/m 32,2 km/h (5 Bft) 100,00 %
01.04.2022 14:38 1,6 C 1,1 C -1,7 C 84 % 1008,9 hPa 0,0 l/m 0 min 0 min 46 W/m 25,7 km/h (4 Bft) 97,87 %
01.04.2022 14:40 1,6 C 1,1 C -1,7 C 84 % 1008,8 hPa 0,0 l/m 0 min 0 min 61 W/m 19,3 km/h (3 Bft) 100,00 %
01.04.2022 14:42 1,6 C 1,1 C -1,7 C 84 % 1008,8 hPa 0,0 l/m 0 min 0 min 60 W/m 41,8 km/h (6 Bft) 97,73 %
01.04.2022 14:44 1,6 C 1,7 C -1,7 C 84 % 1008,9 hPa 0,0 l/m 0 min 0 min 65 W/m 29,0 km/h (5 Bft) 100,00 %
01.04.2022 14:46 1,6 C 1,7 C -1,7 C 84 % 1008,9 hPa 0,0 l/m 0 min 0 min 79 W/m 16,1 km/h (3 Bft) 100,00 %
01.04.2022 14:51 1,7 C 1,7 C -1,7 C 85 % 1008,9 hPa 0,0 l/m 0 min 0 min 86 W/m 35,4 km/h (5 Bft) 98,57 %
01.04.2022 14:52 1,7 C 1,7 C -1,7 C 85 % 1008,9 hPa 0,0 l/m 0 min 0 min 91 W/m 16,1 km/h (3 Bft) 100,00 %
01.04.2022 14:54 1,7 C 1,7 C -1,7 C 85 % 1008,9 hPa 0,0 l/m 0 min 0 min 84 W/m 38,6 km/h (5 Bft) 100,00 %
01.04.2022 14:56 1,7 C 1,7 C -1,7 C 85 % 1008,9 hPa 0,0 l/m 0 min 0 min 68 W/m 19,3 km/h (3 Bft) 100,00 %
01.04.2022 14:58 1,7 C 1,7 C -1,7 C 85 % 1009,0 hPa 0,0 l/m 0 min 0 min 76 W/m 25,7 km/h (4 Bft) 100,00 %
01.04.2022 15:00 1,7 C 1,7 C -1,7 C 85 % 1009,0 hPa 0,0 l/m 0 min 0 min 105 W/m 25,7 km/h (4 Bft) 100,00 %
01.04.2022 15:02 1,8 C 1,7 C -1,7 C 85 % 1009,0 hPa 0,0 l/m 0 min 0 min 76 W/m 25,7 km/h (4 Bft) 100,00 %
01.04.2022 15:04 1,8 C 1,7 C -1,7 C 85 % 1009,0 hPa 0,0 l/m 0 min 0 min 76 W/m 38,6 km/h (5 Bft) 97,87 %
01.04.2022 15:06 1,7 C 1,7 C -1,7 C 85 % 1009,0 hPa 0,0 l/m 0 min 0 min 77 W/m 25,7 km/h (4 Bft) 100,00 %
01.04.2022 15:08 1,7 C 1,7 C -1,7 C 85 % 1009,0 hPa 0,0 l/m 0 min 0 min 53 W/m 12,9 km/h (3 Bft) 100,00 %
01.04.2022 15:10 1,7 C 1,7 C -1,7 C 85 % 1009,1 hPa 0,0 l/m 0 min 0 min 59 W/m 19,3 km/h (3 Bft) 97,87 %
01.04.2022 15:12 1,7 C 1,7 C -1,7 C 85 % 1009,1 hPa 0,0 l/m 0 min 0 min 54 W/m 22,5 km/h (4 Bft) 93,62 %
01.04.2022 15:14 1,7 C 1,7 C -1,7 C 85 % 1009,2 hPa 0,0 l/m 0 min 0 min 52 W/m 19,3 km/h (3 Bft) 97,87 %
01.04.2022 15:16 1,7 C 1,1 C -1,7 C 85 % 1009,2 hPa 0,0 l/m 0 min 0 min 58 W/m 25,7 km/h (4 Bft) 97,87 %
01.04.2022 15:18 1,7 C 1,1 C -1,7 C 85 % 1009,2 hPa 0,0 l/m 0 min 0 min 46 W/m 32,2 km/h (5 Bft) 97,87 %
01.04.2022 15:20 1,7 C 1,1 C -1,7 C 86 % 1009,2 hPa 0,0 l/m 0 min 0 min 40 W/m 22,5 km/h (4 Bft) 95,65 %
01.04.2022 15:22 1,7 C 1,1 C -1,7 C 86 % 1009,2 hPa 0,0 l/m 0 min 0 min 52 W/m 22,5 km/h (4 Bft) 97,87 %
01.04.2022 15:24 1,6 C 1,1 C -1,7 C 86 % 1009,2 hPa 0,0 l/m 0 min 0 min 69 W/m 25,7 km/h (4 Bft) 95,74 %
01.04.2022 15:26 1,6 C 1,1 C -1,7 C 86 % 1009,2 hPa 0,0 l/m 0 min 0 min 67 W/m 22,5 km/h (4 Bft) 93,62 %
01.04.2022 15:28 1,6 C 1,1 C -1,7 C 86 % 1009,3 hPa 0,0 l/m 0 min 0 min 69 W/m 32,2 km/h (5 Bft) 97,87 %
01.04.2022 15:30 1,6 C 1,7 C -1,7 C 86 % 1009,3 hPa 0,0 l/m 0 min 0 min 90 W/m 16,1 km/h (3 Bft) 97,87 %
01.04.2022 15:32 1,6 C 1,1 C -1,7 C 86 % 1009,3 hPa 0,0 l/m 0 min 0 min 66 W/m 25,7 km/h (4 Bft) 97,87 %
01.04.2022 15:34 1,6 C 1,1 C -1,7 C 86 % 1009,3 hPa 0,0 l/m 0 min 0 min 59 W/m 29,0 km/h (5 Bft) 97,87 %
01.04.2022 15:36 1,6 C 1,1 C -1,7 C 86 % 1009,3 hPa 0,0 l/m 0 min 0 min 50 W/m 29,0 km/h (5 Bft) 97,87 %
01.04.2022 15:38 1,5 C 1,1 C -2,2 C 86 % 1009,3 hPa 0,0 l/m 0 min 0 min 65 W/m 19,3 km/h (3 Bft) 97,87 %
01.04.2022 15:40 1,5 C 1,1 C -1,7 C 86 % 1009,3 hPa 0,0 l/m 0 min 0 min 74 W/m 16,1 km/h (3 Bft) 100,00 %
01.04.2022 15:42 1,5 C 1,1 C -1,7 C 87 % 1009,4 hPa 0,0 l/m 0 min 0 min 67 W/m 29,0 km/h (5 Bft) 100,00 %
01.04.2022 15:44 1,5 C 1,1 C -2,2 C 87 % 1009,4 hPa 0,0 l/m 0 min 0 min 78 W/m 35,4 km/h (5 Bft) 100,00 %
01.04.2022 15:46 1,5 C 1,1 C -1,7 C 87 % 1009,4 hPa 0,0 l/m 0 min 0 min 104 W/m 16,1 km/h (3 Bft) 97,87 %
01.04.2022 15:48 1,5 C 1,7 C -1,7 C 87 % 1009,4 hPa 0,0 l/m 0 min 0 min 108 W/m 16,1 km/h (3 Bft) 97,87 %
01.04.2022 15:50 1,5 C 1,7 C -1,7 C 87 % 1009,5 hPa 0,0 l/m 0 min 0 min 84 W/m 22,5 km/h (4 Bft) 100,00 %
01.04.2022 15:52 1,5 C 1,7 C -1,7 C 87 % 1009,4 hPa 0,0 l/m 0 min 0 min 84 W/m 35,4 km/h (5 Bft) 100,00 %
01.04.2022 15:54 1,5 C 1,7 C -1,7 C 87 % 1009,4 hPa 0,0 l/m 0 min 0 min 78 W/m 41,8 km/h (6 Bft) 100,00 %
01.04.2022 15:56 1,5 C 1,1 C -1,7 C 87 % 1009,5 hPa 0,0 l/m 0 min 0 min 84 W/m 25,7 km/h (4 Bft) 100,00 %
01.04.2022 15:58 1,6 C 1,7 C -1,7 C 87 % 1009,5 hPa 0,0 l/m 0 min 0 min 93 W/m 16,1 km/h (3 Bft) 100,00 %
01.04.2022 16:00 1,6 C 1,7 C -1,7 C 87 % 1009,5 hPa 0,0 l/m 0 min 0 min 131 W/m 29,0 km/h (5 Bft) 97,87 %
01.04.2022 16:02 1,6 C 1,7 C -1,7 C 87 % 1009,4 hPa 0,0 l/m 0 min 0 min 142 W/m 22,5 km/h (4 Bft) 97,87 %
01.04.2022 16:04 1,6 C 1,7 C -1,7 C 87 % 1009,4 hPa 0,0 l/m 0 min 0 min 132 W/m 35,4 km/h (5 Bft) 55,32 %
01.04.2022 16:06 1,7 C 1,7 C -1,7 C 87 % 1009,5 hPa 0,0 l/m 0 min 0 min 118 W/m 38,6 km/h (5 Bft) 95,65 %
01.04.2022 16:08 1,7 C 2,2 C -1,7 C 87 % 1009,4 hPa 0,0 l/m 0 min 0 min 145 W/m 25,7 km/h (4 Bft) 95,74 %
01.04.2022 16:10 1,7 C 1,7 C -1,7 C 87 % 1009,5 hPa 0,0 l/m 0 min 0 min 113 W/m 25,7 km/h (4 Bft) 97,87 %
01.04.2022 16:12 1,7 C 2,2 C -1,1 C 87 % 1009,6 hPa 0,0 l/m 0 min 0 min 130 W/m 25,7 km/h (4 Bft) 97,87 %
01.04.2022 16:14 1,8 C 2,2 C -1,1 C 87 % 1009,5 hPa 0,0 l/m 0 min 0 min 158 W/m 38,6 km/h (5 Bft) 97,87 %
01.04.2022 16:16 1,8 C 2,2 C -1,1 C 86 % 1009,5 hPa 0,0 l/m 0 min 0 min 107 W/m 25,7 km/h (4 Bft) 94,74 %
01.04.2022 16:18 1,9 C 2,2 C -1,1 C 86 % 1009,5 hPa 0,0 l/m 0 min 0 min 100 W/m 45,1 km/h (6 Bft) 97,87 %
01.04.2022 16:20 1,9 C 2,2 C -1,1 C 86 % 1009,5 hPa 0,0 l/m 0 min 0 min 86 W/m 16,1 km/h (3 Bft) 97,87 %
01.04.2022 16:22 1,9 C 2,2 C -1,1 C 86 % 1009,5 hPa 0,0 l/m 0 min 0 min 94 W/m 16,1 km/h (3 Bft) 97,83 %
01.04.2022 16:24 2,0 C 2,2 C -1,1 C 86 % 1009,5 hPa 0,0 l/m 0 min 0 min 82 W/m 25,7 km/h (4 Bft) 96,43 %
01.04.2022 16:26 2,0 C 2,2 C -1,1 C 86 % 1009,5 hPa 0,0 l/m 0 min 0 min 89 W/m 35,4 km/h (5 Bft) 93,62 %
01.04.2022 16:28 2,0 C 2,2 C -1,1 C 86 % 1009,7 hPa 0,0 l/m 0 min 0 min 94 W/m 35,4 km/h (5 Bft) 97,37 %
01.04.2022 16:30 2,0 C 1,7 C -1,1 C 86 % 1009,7 hPa 0,0 l/m 0 min 0 min 70 W/m 19,3 km/h (3 Bft) 95,74 %
01.04.2022 16:32 2,1 C 1,7 C -1,1 C 86 % 1009,7 hPa 0,0 l/m 0 min 0 min 79 W/m 35,4 km/h (5 Bft) 96,36 %
01.04.2022 16:34 2,1 C 2,2 C -1,1 C 86 % 1009,7 hPa 0,0 l/m 0 min 0 min 121 W/m 32,2 km/h (5 Bft) 95,74 %
01.04.2022 16:36 2,1 C 2,2 C -1,1 C 86 % 1009,8 hPa 0,0 l/m 0 min 0 min 127 W/m 32,2 km/h (5 Bft) 97,37 %
01.04.2022 16:38 2,1 C 2,2 C -1,1 C 86 % 1009,8 hPa 0,0 l/m 0 min 0 min 138 W/m 32,2 km/h (5 Bft) 95,74 %
01.04.2022 16:40 2,2 C 2,2 C -1,1 C 86 % 1009,7 hPa 0,0 l/m 0 min 0 min 160 W/m 29,0 km/h (5 Bft) 95,74 %
01.04.2022 16:42 2,2 C 2,2 C -1,1 C 85 % 1009,7 hPa 0,0 l/m 0 min 0 min 136 W/m 22,5 km/h (4 Bft) 91,49 %
01.04.2022 16:44 2,2 C 2,2 C -1,1 C 85 % 1009,7 hPa 0,0 l/m 0 min 0 min 138 W/m 22,5 km/h (4 Bft) 94,55 %
01.04.2022 16:46 2,3 C 2,8 C -0,6 C 85 % 1009,8 hPa 0,0 l/m 0 min 0 min 105 W/m 16,1 km/h (3 Bft) 95,74 %
01.04.2022 16:48 2,3 C 2,8 C -1,1 C 85 % 1009,8 hPa 0,0 l/m 0 min 0 min 118 W/m 25,7 km/h (4 Bft) 93,62 %
01.04.2022 16:50 2,3 C 2,2 C -1,1 C 85 % 1009,9 hPa 0,0 l/m 0 min 0 min 119 W/m 22,5 km/h (4 Bft) 98,00 %
01.04.2022 16:52 2,3 C 2,2 C -1,1 C 85 % 1009,9 hPa 0,0 l/m 0 min 0 min 106 W/m 41,8 km/h (6 Bft) 97,37 %
01.04.2022 16:54 2,3 C 2,2 C -1,7 C 86 % 1009,9 hPa 0,0 l/m 0 min 0 min 107 W/m 32,2 km/h (5 Bft) 95,92 %
01.04.2022 16:56 2,2 C 2,2 C -1,7 C 86 % 1010,0 hPa 0,0 l/m 0 min 0 min 138 W/m 29,0 km/h (5 Bft) 96,00 %
01.04.2022 16:58 2,2 C 2,2 C -1,7 C 86 % 1009,9 hPa 0,0 l/m 0 min 0 min 132 W/m 35,4 km/h (5 Bft) 97,37 %
01.04.2022 17:00 2,2 C 2,2 C -1,7 C 87 % 1009,9 hPa 0,0 l/m 0 min 0 min 121 W/m 22,5 km/h (4 Bft) 97,87 %
01.04.2022 17:02 2,1 C 2,2 C -1,7 C 87 % 1010,0 hPa 0,0 l/m 0 min 0 min 120 W/m 25,7 km/h (4 Bft) 96,00 %
01.04.2022 17:04 2,1 C 1,7 C -1,7 C 87 % 1009,9 hPa 0,0 l/m 0 min 0 min 115 W/m 48,3 km/h (6 Bft) 93,62 %
01.04.2022 17:06 2,1 C 1,7 C -1,7 C 87 % 1010,0 hPa 0,0 l/m 0 min 0 min 118 W/m 29,0 km/h (5 Bft) 95,65 %
01.04.2022 17:08 2,1 C 2,2 C -1,7 C 88 % 1010,1 hPa 0,0 l/m 0 min 0 min 105 W/m 16,1 km/h (3 Bft) 95,74 %
01.04.2022 17:10 2,1 C 1,7 C -1,7 C 88 % 1010,0 hPa 0,0 l/m 0 min 0 min 101 W/m 25,7 km/h (4 Bft) 95,74 %
01.04.2022 17:12 2,0 C 1,7 C -1,7 C 88 % 1010,0 hPa 0,0 l/m 0 min 0 min 97 W/m 25,7 km/h (4 Bft) 93,62 %
01.04.2022 17:14 1,9 C 1,7 C -1,7 C 88 % 1010,0 hPa 0,0 l/m 0 min 0 min 90 W/m 25,7 km/h (4 Bft) 95,74 %
01.04.2022 17:16 1,9 C 1,7 C -1,7 C 89 % 1010,1 hPa 0,0 l/m 0 min 0 min 85 W/m 19,3 km/h (3 Bft) 96,15 %
01.04.2022 17:18 1,9 C 1,7 C -1,7 C 89 % 1010,1 hPa 0,0 l/m 0 min 0 min 88 W/m 25,7 km/h (4 Bft) 96,00 %
01.04.2022 17:20 1,9 C 1,7 C -2,2 C 89 % 1010,1 hPa 0,0 l/m 0 min 0 min 72 W/m 22,5 km/h (4 Bft) 94,74 %
01.04.2022 17:22 1,8 C 1,1 C -2,2 C 89 % 1010,2 hPa 0,0 l/m 0 min 0 min 53 W/m 22,5 km/h (4 Bft) 97,87 %
01.04.2022 17:24 1,8 C 1,1 C -2,2 C 89 % 1010,2 hPa 0,0 l/m 0 min 0 min 65 W/m 12,9 km/h (3 Bft) 98,00 %
01.04.2022 17:26 1,8 C 1,1 C -2,2 C 90 % 1010,3 hPa 0,0 l/m 0 min 0 min 90 W/m 12,9 km/h (3 Bft) 96,15 %
01.04.2022 17:28 1,8 C 1,1 C -2,2 C 90 % 1010,2 hPa 0,0 l/m 0 min 0 min 90 W/m 12,9 km/h (3 Bft) 97,87 %
01.04.2022 17:30 1,7 C 1,1 C -2,2 C 90 % 1010,3 hPa 0,0 l/m 0 min 0 min 96 W/m 16,1 km/h (3 Bft) 97,37 %
01.04.2022 17:32 1,7 C 1,7 C -2,2 C 91 % 1010,3 hPa 0,0 l/m 0 min 0 min 82 W/m 9,7 km/h (2 Bft) 97,87 %
01.04.2022 17:34 1,7 C 1,1 C -2,2 C 91 % 1010,3 hPa 0,0 l/m 0 min 0 min 51 W/m 19,3 km/h (3 Bft) 98,00 %
01.04.2022 17:36 1,7 C 1,1 C -2,2 C 91 % 1010,3 hPa 0,0 l/m 0 min 0 min 77 W/m 16,1 km/h (3 Bft) 97,87 %
01.04.2022 17:38 1,7 C 1,1 C -2,2 C 91 % 1010,4 hPa 0,0 l/m 0 min 0 min 91 W/m 16,1 km/h (3 Bft) 100,00 %
01.04.2022 17:40 1,7 C 1,7 C -2,2 C 91 % 1010,4 hPa 0,0 l/m 0 min 0 min 89 W/m 19,3 km/h (3 Bft) 100,00 %
01.04.2022 17:42 1,7 C 1,1 C -2,2 C 91 % 1010,4 hPa 0,0 l/m 0 min 0 min 77 W/m 16,1 km/h (3 Bft) 100,00 %
01.04.2022 17:44 1,7 C 1,1 C -2,2 C 92 % 1010,3 hPa 0,0 l/m 0 min 0 min 73 W/m 9,7 km/h (2 Bft) 100,00 %
01.04.2022 17:46 1,7 C 1,1 C -2,2 C 92 % 1010,4 hPa 0,2 l/m 0 min 0 min 69 W/m 16,1 km/h (3 Bft) 100,00 %
01.04.2022 17:48 1,7 C 1,1 C -2,2 C 92 % 1010,3 hPa 0,0 l/m 0 min 2 min 72 W/m 19,3 km/h (3 Bft) 100,00 %
01.04.2022 17:50 1,7 C 1,1 C -2,2 C 92 % 1010,4 hPa 0,0 l/m 0 min 2 min 66 W/m 19,3 km/h (3 Bft) 100,00 %
01.04.2022 17:52 1,7 C 1,1 C -2,2 C 92 % 1010,4 hPa 0,0 l/m 0 min 2 min 56 W/m 19,3 km/h (3 Bft) 95,65 %
01.04.2022 17:54 1,6 C 1,1 C -2,2 C 92 % 1010,4 hPa 0,0 l/m 0 min 2 min 50 W/m 9,7 km/h (2 Bft) 100,00 %
01.04.2022 17:56 1,6 C 1,1 C -2,2 C 92 % 1010,4 hPa 0,0 l/m 0 min 2 min 34 W/m 19,3 km/h (3 Bft) 100,00 %
01.04.2022 17:58 1,6 C 1,1 C -2,2 C 92 % 1010,5 hPa 0,0 l/m 0 min 2 min 35 W/m 16,1 km/h (3 Bft) 100,00 %
01.04.2022 18:00 1,6 C 1,1 C -2,2 C 93 % 1010,4 hPa 0,0 l/m 0 min 2 min 38 W/m 16,1 km/h (3 Bft) 97,87 %
01.04.2022 18:02 1,6 C 1,1 C -2,2 C 92 % 1010,5 hPa 0,0 l/m 0 min 2 min 42 W/m 12,9 km/h (3 Bft) 98,08 %
01.04.2022 18:04 1,6 C 1,1 C -2,2 C 93 % 1010,5 hPa 0,0 l/m 0 min 2 min 43 W/m 12,9 km/h (3 Bft) 100,00 %
01.04.2022 18:08 1,5 C 1,1 C -2,2 C 93 % 1010,6 hPa 0,0 l/m 0 min 4 min 43 W/m 12,9 km/h (3 Bft) 100,00 %
01.04.2022 18:10 1,6 C 1,1 C -2,2 C 93 % 1010,6 hPa 0,0 l/m 0 min 2 min 35 W/m 16,1 km/h (3 Bft) 100,00 %
01.04.2022 18:12 1,6 C 1,1 C -2,2 C 93 % 1010,6 hPa 0,0 l/m 0 min 2 min 34 W/m 12,9 km/h (3 Bft) 100,00 %
01.04.2022 18:14 1,6 C 1,1 C -2,2 C 93 % 1010,6 hPa 0,0 l/m 0 min 2 min 38 W/m 9,7 km/h (2 Bft) 100,00 %
01.04.2022 18:16 1,6 C 1,1 C -2,2 C 93 % 1010,6 hPa 0,0 l/m 0 min 2 min 34 W/m 9,7 km/h (2 Bft) 100,00 %
01.04.2022 18:18 1,6 C 1,1 C -2,2 C 93 % 1010,7 hPa 0,0 l/m 0 min 2 min 40 W/m 9,7 km/h (2 Bft) 100,00 %
01.04.2022 18:20 1,6 C 1,1 C -2,2 C 93 % 1010,7 hPa 0,2 l/m 0 min 2 min 41 W/m 19,3 km/h (3 Bft) 100,00 %
01.04.2022 18:22 1,6 C 1,1 C -2,2 C 93 % 1010,7 hPa 0,0 l/m 0 min 2 min 48 W/m 12,9 km/h (3 Bft) 100,00 %
01.04.2022 18:24 1,6 C 1,1 C -1,7 C 94 % 1010,7 hPa 0,0 l/m 0 min 2 min 53 W/m 6,4 km/h (2 Bft) 100,00 %
01.04.2022 18:26 1,6 C 1,1 C -1,7 C 93 % 1010,8 hPa 0,0 l/m 0 min 2 min 53 W/m 22,5 km/h (4 Bft) 100,00 %
01.04.2022 18:28 1,6 C 1,1 C -1,7 C 94 % 1010,8 hPa 0,0 l/m 0 min 2 min 49 W/m 16,1 km/h (3 Bft) 100,00 %
01.04.2022 18:30 1,6 C 1,1 C -2,2 C 94 % 1010,8 hPa 0,0 l/m 0 min 2 min 41 W/m 16,1 km/h (3 Bft) 100,00 %
01.04.2022 18:32 1,6 C 1,1 C -2,2 C 94 % 1010,8 hPa 0,0 l/m 0 min 2 min 44 W/m 16,1 km/h (3 Bft) 100,00 %
01.04.2022 18:34 1,6 C 1,1 C -2,2 C 94 % 1010,9 hPa 0,0 l/m 0 min 2 min 35 W/m 9,7 km/h (2 Bft) 100,00 %
01.04.2022 18:36 1,6 C 1,1 C -2,2 C 94 % 1010,9 hPa 0,0 l/m 0 min 2 min 25 W/m 12,9 km/h (3 Bft) 100,00 %
01.04.2022 18:38 1,6 C 1,1 C -1,7 C 94 % 1010,9 hPa 0,0 l/m 0 min 2 min 21 W/m 16,1 km/h (3 Bft) 100,00 %
01.04.2022 18:40 1,6 C 1,1 C -2,2 C 94 % 1010,9 hPa 0,0 l/m 0 min 2 min 22 W/m 6,4 km/h (2 Bft) 97,87 %
01.04.2022 18:42 1,6 C 1,1 C -2,2 C 94 % 1010,9 hPa 0,2 l/m 0 min 2 min 20 W/m 12,9 km/h (3 Bft) 100,00 %
01.04.2022 18:44 1,6 C 1,1 C -2,2 C 94 % 1010,9 hPa 0,0 l/m 0 min 2 min 21 W/m 22,5 km/h (4 Bft) 100,00 %
01.04.2022 18:46 1,6 C 1,1 C -2,2 C 94 % 1011,0 hPa 0,0 l/m 0 min 2 min 16 W/m 16,1 km/h (3 Bft) 100,00 %
01.04.2022 18:48 1,5 C 1,1 C -2,2 C 94 % 1010,9 hPa 0,0 l/m 0 min 2 min 18 W/m 9,7 km/h (2 Bft) 100,00 %
01.04.2022 18:50 1,5 C 0,6 C -2,2 C 94 % 1011,0 hPa 0,0 l/m 0 min 2 min 17 W/m 16,1 km/h (3 Bft) 95,74 %
01.04.2022 18:52 1,4 C 0,6 C -2,2 C 94 % 1010,9 hPa 0,0 l/m 0 min 2 min 17 W/m 29,0 km/h (5 Bft) 97,87 %
01.04.2022 18:54 1,4 C 0,6 C -2,2 C 94 % 1011,0 hPa 0,0 l/m 0 min 2 min 18 W/m 25,7 km/h (4 Bft) 97,87 %
01.04.2022 18:56 1,3 C 0,6 C -2,2 C 94 % 1011,0 hPa 0,0 l/m 0 min 2 min 24 W/m 19,3 km/h (3 Bft) 95,74 %
01.04.2022 18:58 1,3 C 0,6 C -2,2 C 94 % 1011,0 hPa 0,0 l/m 0 min 2 min 27 W/m 22,5 km/h (4 Bft) 95,74 %
01.04.2022 19:00 1,3 C 0,6 C -2,2 C 94 % 1010,9 hPa 0,0 l/m 0 min 2 min 24 W/m 16,1 km/h (3 Bft) 93,62 %
01.04.2022 19:02 1,2 C 0,6 C -2,2 C 94 % 1011,0 hPa 0,0 l/m 0 min 2 min 18 W/m 35,4 km/h (5 Bft) 97,83 %
01.04.2022 19:04 1,2 C 0,6 C -2,2 C 94 % 1011,1 hPa 0,0 l/m 0 min 2 min 19 W/m 41,8 km/h (6 Bft) 97,87 %
01.04.2022 19:06 1,2 C 0,6 C -2,2 C 94 % 1011,1 hPa 0,0 l/m 0 min 2 min 20 W/m 19,3 km/h (3 Bft) 95,74 %
01.04.2022 19:08 1,2 C 0,6 C -2,2 C 94 % 1011,2 hPa 0,2 l/m 0 min 2 min 16 W/m 22,5 km/h (4 Bft) 95,74 %
01.04.2022 19:10 1,2 C 0,6 C -2,2 C 94 % 1011,1 hPa 0,0 l/m 0 min 2 min 15 W/m 19,3 km/h (3 Bft) 95,74 %
01.04.2022 19:12 1,2 C 0,6 C -2,2 C 94 % 1011,2 hPa 0,0 l/m 0 min 2 min 14 W/m 19,3 km/h (3 Bft) 91,30 %
01.04.2022 19:14 1,2 C 0,6 C -2,2 C 94 % 1011,2 hPa 0,0 l/m 0 min 2 min 11 W/m 16,1 km/h (3 Bft) 95,74 %
01.04.2022 19:16 1,1 C 0,6 C -2,2 C 94 % 1011,2 hPa 0,0 l/m 0 min 2 min 10 W/m 12,9 km/h (3 Bft) 93,62 %
01.04.2022 19:18 1,1 C 0,6 C -2,2 C 95 % 1011,3 hPa 0,0 l/m 0 min 2 min 11 W/m 12,9 km/h (3 Bft) 91,49 %
01.04.2022 19:20 1,1 C 0,6 C -2,2 C 95 % 1011,3 hPa 0,0 l/m 0 min 2 min 13 W/m 16,1 km/h (3 Bft) 87,23 %
01.04.2022 19:22 1,1 C 0,6 C -2,2 C 95 % 1011,3 hPa 0,0 l/m 0 min 2 min 11 W/m 12,9 km/h (3 Bft) 93,62 %
01.04.2022 19:24 1,1 C 0,6 C -2,2 C 95 % 1011,3 hPa 0,0 l/m 0 min 2 min 11 W/m 35,4 km/h (5 Bft) 95,65 %
01.04.2022 19:26 1,1 C 0,6 C -2,2 C 95 % 1011,3 hPa 0,0 l/m 0 min 2 min 11 W/m 22,5 km/h (4 Bft) 95,74 %
01.04.2022 19:28 1,1 C 0,6 C -2,2 C 95 % 1011,3 hPa 0,2 l/m 0 min 2 min 10 W/m 12,9 km/h (3 Bft) 63,83 %
01.04.2022 19:30 1,1 C 0,6 C -2,2 C 95 % 1011,3 hPa 0,0 l/m 0 min 2 min 9 W/m 12,9 km/h (3 Bft) 85,37 %
01.04.2022 19:32 1,1 C 0,6 C -2,8 C 95 % 1011,3 hPa 0,0 l/m 0 min 2 min 8 W/m 16,1 km/h (3 Bft) 95,74 %
01.04.2022 19:34 1,1 C 0,6 C -2,8 C 95 % 1011,4 hPa 0,0 l/m 0 min 2 min 5 W/m 16,1 km/h (3 Bft) 93,62 %
01.04.2022 19:36 1,0 C 0,6 C -2,8 C 95 % 1011,4 hPa 0,0 l/m 0 min 2 min 6 W/m 12,9 km/h (3 Bft) 95,65 %
01.04.2022 19:38 1,0 C 0,6 C -2,8 C 95 % 1011,4 hPa 0,0 l/m 0 min 2 min 5 W/m 25,7 km/h (4 Bft) 95,74 %
01.04.2022 19:40 1,0 C 0,6 C -2,8 C 95 % 1011,4 hPa 0,0 l/m 0 min 2 min 5 W/m 16,1 km/h (3 Bft) 95,74 %
01.04.2022 19:42 1,0 C 0,6 C -2,8 C 95 % 1011,5 hPa 0,0 l/m 0 min 2 min 5 W/m 16,1 km/h (3 Bft) 93,62 %
01.04.2022 19:44 1,0 C 0,6 C -2,8 C 95 % 1011,5 hPa 0,0 l/m 0 min 2 min 1 W/m 19,3 km/h (3 Bft) 97,87 %
01.04.2022 19:46 1,0 C 0,6 C -2,8 C 95 % 1011,5 hPa 0,0 l/m 0 min 2 min 0 W/m 22,5 km/h (4 Bft) 97,83 %
01.04.2022 19:48 0,9 C 0,6 C -2,8 C 95 % 1011,5 hPa 0,0 l/m 0 min 2 min 0 W/m 19,3 km/h (3 Bft) 97,87 %
01.04.2022 19:50 0,9 C 0,0 C -2,8 C 95 % 1011,5 hPa 0,0 l/m 0 min 2 min 0 W/m 12,9 km/h (3 Bft) 97,87 %
01.04.2022 19:52 0,9 C 0,0 C -2,8 C 95 % 1011,6 hPa 0,0 l/m 0 min 2 min 0 W/m 16,1 km/h (3 Bft) 95,74 %
01.04.2022 19:54 0,9 C 0,0 C -2,8 C 95 % 1011,6 hPa 0,0 l/m 0 min 2 min 0 W/m 19,3 km/h (3 Bft) 97,87 %
01.04.2022 19:56 0,9 C 0,0 C -2,8 C 95 % 1011,6 hPa 0,0 l/m 0 min 2 min 0 W/m 19,3 km/h (3 Bft) 97,87 %
01.04.2022 19:58 0,9 C 0,0 C -2,8 C 95 % 1011,6 hPa 0,2 l/m 0 min 2 min 0 W/m 29,0 km/h (5 Bft) 97,87 %
01.04.2022 20:00 0,9 C 0,0 C -2,8 C 95 % 1011,7 hPa 0,0 l/m 0 min 2 min 0 W/m 19,3 km/h (3 Bft) 95,65 %
01.04.2022 20:02 0,9 C 0,0 C -2,8 C 95 % 1011,8 hPa 0,0 l/m 0 min 2 min 0 W/m 16,1 km/h (3 Bft) 97,87 %
01.04.2022 20:04 0,9 C 0,0 C -2,8 C 95 % 1011,7 hPa 0,0 l/m 0 min 2 min 0 W/m 16,1 km/h (3 Bft) 95,74 %
01.04.2022 20:06 0,9 C 0,0 C -2,8 C 95 % 1011,7 hPa 0,0 l/m 0 min 2 min 0 W/m 16,1 km/h (3 Bft) 97,87 %
01.04.2022 20:08 0,8 C 0,0 C -2,8 C 95 % 1011,7 hPa 0,0 l/m 0 min 2 min 0 W/m 19,3 km/h (3 Bft) 97,87 %
01.04.2022 20:10 0,9 C 0,0 C -2,8 C 95 % 1011,8 hPa 0,0 l/m 0 min 2 min 0 W/m 12,9 km/h (3 Bft) 93,48 %
01.04.2022 20:12 0,8 C 0,0 C -2,8 C 95 % 1011,8 hPa 0,2 l/m 0 min 2 min 0 W/m 12,9 km/h (3 Bft) 100,00 %
01.04.2022 20:14 0,8 C 0,0 C -2,8 C 96 % 1011,8 hPa 0,0 l/m 0 min 2 min 0 W/m 25,7 km/h (4 Bft) 100,00 %
01.04.2022 20:16 0,8 C 0,0 C -2,8 C 96 % 1011,8 hPa 0,0 l/m 0 min 2 min 0 W/m 22,5 km/h (4 Bft) 100,00 %
01.04.2022 20:18 0,8 C 0,0 C -2,8 C 96 % 1011,9 hPa 0,0 l/m 0 min 2 min 0 W/m 9,7 km/h (2 Bft) 100,00 %
01.04.2022 20:20 0,8 C 0,0 C -2,8 C 96 % 1011,9 hPa 0,0 l/m 0 min 2 min 0 W/m 12,9 km/h (3 Bft) 97,87 %
01.04.2022 20:22 0,8 C 0,0 C -2,8 C 96 % 1011,9 hPa 0,0 l/m 0 min 2 min 0 W/m 22,5 km/h (4 Bft) 100,00 %
01.04.2022 20:24 0,8 C 0,0 C -2,8 C 96 % 1011,9 hPa 0,0 l/m 0 min 2 min 0 W/m 22,5 km/h (4 Bft) 100,00 %
01.04.2022 20:26 0,8 C 0,0 C -2,8 C 96 % 1012,0 hPa 0,0 l/m 0 min 2 min 0 W/m 22,5 km/h (4 Bft) 100,00 %
01.04.2022 20:28 0,8 C 0,0 C -2,8 C 96 % 1012,0 hPa 0,0 l/m 0 min 2 min 0 W/m 25,7 km/h (4 Bft) 97,87 %
01.04.2022 20:30 0,8 C 0,0 C -2,8 C 96 % 1011,9 hPa 0,0 l/m 0 min 2 min 0 W/m 19,3 km/h (3 Bft) 100,00 %
01.04.2022 20:32 0,8 C 0,0 C -2,8 C 96 % 1012,0 hPa 0,0 l/m 0 min 2 min 0 W/m 25,7 km/h (4 Bft) 97,87 %
01.04.2022 20:34 0,8 C 0,0 C -2,8 C 96 % 1012,0 hPa 0,0 l/m 0 min 0 min 0 W/m 19,3 km/h (3 Bft) 100,00 %
01.04.2022 20:36 0,8 C 0,0 C -2,8 C 96 % 1012,0 hPa 0,0 l/m 0 min 0 min 0 W/m 12,9 km/h (3 Bft) 100,00 %
01.04.2022 20:38 0,8 C 0,0 C -2,8 C 96 % 1012,1 hPa 0,0 l/m 0 min 2 min 0 W/m 16,1 km/h (3 Bft) 100,00 %
01.04.2022 20:40 0,8 C 0,0 C -2,8 C 96 % 1012,1 hPa 0,0 l/m 0 min 2 min 0 W/m 19,3 km/h (3 Bft) 97,87 %
01.04.2022 20:42 0,8 C 0,0 C -2,8 C 96 % 1012,1 hPa 0,2 l/m 0 min 2 min 0 W/m 35,4 km/h (5 Bft) 97,87 %
01.04.2022 20:44 0,8 C 0,0 C -2,8 C 96 % 1012,1 hPa 0,0 l/m 0 min 2 min 0 W/m 16,1 km/h (3 Bft) 97,87 %
01.04.2022 20:46 0,8 C 0,0 C -2,8 C 96 % 1012,2 hPa 0,0 l/m 0 min 0 min 0 W/m 19,3 km/h (3 Bft) 97,83 %
01.04.2022 20:48 0,8 C 0,0 C -2,8 C 96 % 1012,1 hPa 0,0 l/m 0 min 2 min 0 W/m 19,3 km/h (3 Bft) 95,74 %
01.04.2022 20:50 0,8 C 0,0 C -2,8 C 96 % 1012,2 hPa 0,0 l/m 0 min 2 min 0 W/m 16,1 km/h (3 Bft) 97,87 %
01.04.2022 20:52 0,8 C 0,0 C -2,8 C 96 % 1012,1 hPa 0,0 l/m 0 min 2 min 0 W/m 38,6 km/h (5 Bft) 97,87 %
01.04.2022 20:54 0,8 C 0,0 C -2,8 C 96 % 1012,2 hPa 0,0 l/m 0 min 2 min 0 W/m 25,7 km/h (4 Bft) 95,74 %
01.04.2022 20:56 0,8 C 0,0 C -2,8 C 96 % 1012,2 hPa 0,0 l/m 0 min 0 min 0 W/m 25,7 km/h (4 Bft) 95,74 %
01.04.2022 20:58 0,8 C 0,0 C -2,8 C 96 % 1012,3 hPa 0,0 l/m 0 min 2 min 0 W/m 22,5 km/h (4 Bft) 97,83 %
01.04.2022 21:00 0,8 C 0,0 C -2,8 C 96 % 1012,3 hPa 0,2 l/m 0 min 2 min 0 W/m 16,1 km/h (3 Bft) 97,87 %
01.04.2022 21:02 0,8 C 0,0 C -2,8 C 96 % 1012,4 hPa 0,0 l/m 0 min 2 min 0 W/m 19,3 km/h (3 Bft) 53,49 %
01.04.2022 21:04 0,8 C 0,0 C -2,8 C 96 % 1012,4 hPa 0,0 l/m 0 min 2 min 0 W/m 25,7 km/h (4 Bft) 97,87 %
01.04.2022 21:06 0,8 C 0,0 C -2,8 C 96 % 1012,4 hPa 0,0 l/m 0 min 2 min 0 W/m 16,1 km/h (3 Bft) 97,87 %
01.04.2022 21:08 0,8 C 0,0 C -2,8 C 96 % 1012,3 hPa 0,0 l/m 0 min 0 min 0 W/m 22,5 km/h (4 Bft) 95,74 %
01.04.2022 21:10 0,8 C 0,0 C -2,8 C 96 % 1012,4 hPa 0,0 l/m 0 min 2 min 0 W/m 22,5 km/h (4 Bft) 95,65 %
01.04.2022 21:12 0,8 C 0,0 C -2,8 C 96 % 1012,4 hPa 0,0 l/m 0 min 2 min 0 W/m 19,3 km/h (3 Bft) 100,00 %
01.04.2022 21:14 0,8 C 0,0 C -2,8 C 96 % 1012,5 hPa 0,0 l/m 0 min 2 min 0 W/m 25,7 km/h (4 Bft) 100,00 %
01.04.2022 21:16 0,8 C 0,0 C -2,8 C 96 % 1012,4 hPa 0,0 l/m 0 min 2 min 0 W/m 25,7 km/h (4 Bft) 100,00 %
01.04.2022 21:18 0,8 C 0,0 C -2,8 C 96 % 1012,5 hPa 0,0 l/m 0 min 2 min 0 W/m 25,7 km/h (4 Bft) 97,87 %
01.04.2022 21:20 0,8 C 0,0 C -2,2 C 96 % 1012,5 hPa 0,0 l/m 0 min 2 min 0 W/m 29,0 km/h (5 Bft) 95,65 %
01.04.2022 21:22 0,8 C 0,0 C -2,8 C 96 % 1012,5 hPa 0,0 l/m 0 min 2 min 0 W/m 16,1 km/h (3 Bft) 100,00 %
01.04.2022 21:24 0,8 C 0,0 C -2,8 C 96 % 1012,5 hPa 0,0 l/m 0 min 2 min 0 W/m 22,5 km/h (4 Bft) 100,00 %
01.04.2022 21:26 0,8 C 0,0 C -2,2 C 96 % 1012,5 hPa 0,0 l/m 0 min 2 min 0 W/m 22,5 km/h (4 Bft) 100,00 %
01.04.2022 21:28 0,8 C 0,0 C -2,2 C 96 % 1012,6 hPa 0,0 l/m 0 min 2 min 0 W/m 25,7 km/h (4 Bft) 95,74 %
01.04.2022 21:30 0,8 C 0,0 C -2,2 C 96 % 1012,5 hPa 0,0 l/m 0 min 2 min 0 W/m 29,0 km/h (5 Bft) 95,74 %
01.04.2022 21:32 0,8 C 0,0 C -2,8 C 96 % 1012,7 hPa 0,0 l/m 0 min 2 min 0 W/m 16,1 km/h (3 Bft) 97,83 %
01.04.2022 21:34 0,8 C 0,0 C -2,8 C 96 % 1012,6 hPa 0,0 l/m 0 min 2 min 0 W/m 19,3 km/h (3 Bft) 97,87 %
01.04.2022 21:36 0,8 C 0,0 C -2,8 C 96 % 1012,7 hPa 0,0 l/m 0 min 2 min 0 W/m 22,5 km/h (4 Bft) 95,74 %
01.04.2022 21:38 0,8 C 0,0 C -2,2 C 96 % 1012,7 hPa 0,0 l/m 0 min 0 min 0 W/m 22,5 km/h (4 Bft) 95,74 %
01.04.2022 21:40 0,8 C 0,0 C -2,2 C 96 % 1012,7 hPa 0,0 l/m 0 min 2 min 0 W/m 16,1 km/h (3 Bft) 97,87 %
01.04.2022 21:42 0,8 C 0,0 C -2,2 C 96 % 1012,7 hPa 0,0 l/m 0 min 0 min 0 W/m 16,1 km/h (3 Bft) 95,74 %
01.04.2022 21:44 0,8 C 0,0 C -2,2 C 96 % 1012,7 hPa 0,0 l/m 0 min 2 min 0 W/m 22,5 km/h (4 Bft) 97,83 %
01.04.2022 21:46 0,8 C 0,0 C -2,8 C 96 % 1012,8 hPa 0,0 l/m 0 min 2 min 0 W/m 25,7 km/h (4 Bft) 95,74 %
01.04.2022 21:48 0,8 C 0,0 C -2,2 C 96 % 1012,8 hPa 0,2 l/m 0 min 2 min 0 W/m 25,7 km/h (4 Bft) 54,35 %
01.04.2022 21:50 0,8 C 0,0 C -2,2 C 96 % 1012,8 hPa 0,0 l/m 0 min 0 min 0 W/m 25,7 km/h (4 Bft) 97,87 %
01.04.2022 21:52 0,8 C 0,0 C -2,2 C 96 % 1012,7 hPa 0,0 l/m 0 min 2 min 0 W/m 22,5 km/h (4 Bft) 97,87 %
01.04.2022 21:54 0,8 C 0,0 C -2,2 C 96 % 1012,8 hPa 0,0 l/m 0 min 2 min 0 W/m 19,3 km/h (3 Bft) 97,87 %
01.04.2022 21:56 0,8 C 0,0 C -2,2 C 96 % 1012,8 hPa 0,0 l/m 0 min 2 min 0 W/m 16,1 km/h (3 Bft) 95,65 %
01.04.2022 21:58 0,8 C 0,0 C -2,2 C 96 % 1012,8 hPa 0,0 l/m 0 min 2 min 0 W/m 25,7 km/h (4 Bft) 97,87 %
01.04.2022 22:00 0,8 C 0,6 C -2,2 C 96 % 1012,8 hPa 0,0 l/m 0 min 0 min 0 W/m 32,2 km/h (5 Bft) 97,87 %
01.04.2022 22:02 0,8 C 0,6 C -2,2 C 96 % 1012,8 hPa 0,0 l/m 0 min 2 min 0 W/m 22,5 km/h (4 Bft) 97,87 %
01.04.2022 22:04 0,8 C 0,6 C -2,2 C 96 % 1012,9 hPa 0,0 l/m 0 min 0 min 0 W/m 16,1 km/h (3 Bft) 97,87 %
01.04.2022 22:06 0,8 C 0,6 C -2,2 C 96 % 1012,8 hPa 0,0 l/m 0 min 0 min 0 W/m 25,7 km/h (4 Bft) 95,65 %
01.04.2022 22:08 0,8 C 0,6 C -2,2 C 96 % 1012,9 hPa 0,0 l/m 0 min 0 min 0 W/m 25,7 km/h (4 Bft) 100,00 %
01.04.2022 22:10 0,8 C 0,6 C -2,2 C 96 % 1012,9 hPa 0,0 l/m 0 min 0 min 0 W/m 16,1 km/h (3 Bft) 100,00 %
01.04.2022 22:12 0,8 C 0,6 C -2,2 C 96 % 1012,8 hPa 0,0 l/m 0 min 0 min 0 W/m 16,1 km/h (3 Bft) 97,87 %
01.04.2022 22:14 0,8 C 0,6 C -2,2 C 96 % 1012,9 hPa 0,0 l/m 0 min 0 min 0 W/m 25,7 km/h (4 Bft) 100,00 %
01.04.2022 22:16 0,8 C 0,6 C -2,2 C 96 % 1012,9 hPa 0,0 l/m 0 min 2 min 0 W/m 19,3 km/h (3 Bft) 95,74 %
01.04.2022 22:18 0,9 C 0,6 C -2,2 C 96 % 1013,0 hPa 0,0 l/m 0 min 2 min 0 W/m 16,1 km/h (3 Bft) 100,00 %
01.04.2022 22:20 0,9 C 0,6 C -2,2 C 96 % 1013,0 hPa 0,0 l/m 0 min 0 min 0 W/m 35,4 km/h (5 Bft) 100,00 %
01.04.2022 22:22 0,9 C 0,6 C -2,2 C 96 % 1013,0 hPa 0,0 l/m 0 min 0 min 0 W/m 19,3 km/h (3 Bft) 100,00 %
01.04.2022 22:24 0,9 C 0,6 C -2,2 C 96 % 1012,9 hPa 0,0 l/m 0 min 0 min 0 W/m 12,9 km/h (3 Bft) 97,87 %
01.04.2022 22:26 0,9 C 0,6 C -2,2 C 96 % 1013,0 hPa 0,0 l/m 0 min 0 min 0 W/m 9,7 km/h (2 Bft) 97,87 %
01.04.2022 22:28 0,9 C 0,6 C -2,2 C 96 % 1013,0 hPa 0,0 l/m 0 min 0 min 0 W/m 29,0 km/h (5 Bft) 93,62 %
01.04.2022 22:30 0,9 C 0,6 C -2,2 C 96 % 1013,0 hPa 0,0 l/m 0 min 0 min 0 W/m 16,1 km/h (3 Bft) 95,65 %
01.04.2022 22:32 0,9 C 0,6 C -2,2 C 96 % 1013,1 hPa 0,0 l/m 0 min 0 min 0 W/m 16,1 km/h (3 Bft) 95,74 %
01.04.2022 22:34 0,9 C 0,6 C -2,2 C 96 % 1013,1 hPa 0,0 l/m 0 min 0 min 0 W/m 16,1 km/h (3 Bft) 95,74 %
01.04.2022 22:36 0,9 C 0,6 C -2,2 C 96 % 1013,1 hPa 0,0 l/m 0 min 0 min 0 W/m 22,5 km/h (4 Bft) 93,62 %
01.04.2022 22:38 0,9 C 0,6 C -2,2 C 96 % 1013,0 hPa 0,0 l/m 0 min 0 min 0 W/m 25,7 km/h (4 Bft) 93,62 %
01.04.2022 22:40 0,9 C 0,6 C -2,2 C 96 % 1013,1 hPa 0,0 l/m 0 min 0 min 0 W/m 12,9 km/h (3 Bft) 97,87 %
01.04.2022 22:42 0,9 C 0,6 C -2,2 C 96 % 1013,0 hPa 0,0 l/m 0 min 0 min 0 W/m 22,5 km/h (4 Bft) 93,48 %
01.04.2022 22:44 0,9 C 0,6 C -2,2 C 96 % 1013,0 hPa 0,0 l/m 0 min 0 min 0 W/m 16,1 km/h (3 Bft) 95,74 %
01.04.2022 22:46 0,9 C 0,6 C -2,2 C 96 % 1013,1 hPa 0,0 l/m 0 min 0 min 0 W/m 12,9 km/h (3 Bft) 95,74 %
01.04.2022 22:48 0,9 C 0,6 C -2,2 C 97 % 1013,1 hPa 0,0 l/m 0 min 0 min 0 W/m 19,3 km/h (3 Bft) 95,74 %
01.04.2022 22:50 0,9 C 0,6 C -2,2 C 97 % 1013,1 hPa 0,0 l/m 0 min 0 min 0 W/m 22,5 km/h (4 Bft) 97,87 %
01.04.2022 22:52 0,9 C 0,6 C -2,2 C 97 % 1013,1 hPa 0,0 l/m 0 min 0 min 0 W/m 19,3 km/h (3 Bft) 93,62 %
01.04.2022 22:54 0,9 C 0,6 C -2,2 C 97 % 1013,1 hPa 0,0 l/m 0 min 0 min 0 W/m 19,3 km/h (3 Bft) 95,65 %
01.04.2022 22:56 0,8 C 0,6 C -2,2 C 97 % 1013,1 hPa 0,0 l/m 0 min 0 min 0 W/m 16,1 km/h (3 Bft) 95,74 %
01.04.2022 22:58 0,8 C 0,6 C -2,2 C 97 % 1013,1 hPa 0,0 l/m 0 min 0 min 0 W/m 22,5 km/h (4 Bft) 97,87 %
01.04.2022 23:00 0,8 C 0,6 C -2,2 C 97 % 1013,2 hPa 0,0 l/m 0 min 0 min 0 W/m 35,4 km/h (5 Bft) 97,87 %
01.04.2022 23:02 0,8 C 0,6 C -2,2 C 97 % 1013,1 hPa 0,0 l/m 0 min 0 min 0 W/m 19,3 km/h (3 Bft) 95,74 %
01.04.2022 23:04 0,8 C 0,6 C -2,2 C 97 % 1013,2 hPa 0,0 l/m 0 min 0 min 0 W/m 12,9 km/h (3 Bft) 97,22 %
01.04.2022 23:06 0,8 C 0,6 C -2,2 C 97 % 1013,2 hPa 0,0 l/m 0 min 0 min 0 W/m 25,7 km/h (4 Bft) 96,55 %
01.04.2022 23:08 0,8 C 0,6 C -2,2 C 97 % 1013,2 hPa 0,0 l/m 0 min 0 min 0 W/m 22,5 km/h (4 Bft) 97,14 %
01.04.2022 23:10 0,8 C 0,6 C -2,2 C 97 % 1013,2 hPa 0,0 l/m 0 min 0 min 0 W/m 19,3 km/h (3 Bft) 95,74 %
01.04.2022 23:12 0,8 C 0,6 C -2,2 C 97 % 1013,2 hPa 0,0 l/m 0 min 2 min 0 W/m 19,3 km/h (3 Bft) 97,87 %
01.04.2022 23:14 0,8 C 0,6 C -2,2 C 97 % 1013,2 hPa 0,0 l/m 0 min 0 min 0 W/m 25,7 km/h (4 Bft) 97,87 %
01.04.2022 23:16 0,8 C 0,6 C -2,2 C 97 % 1013,2 hPa 0,2 l/m 0 min 0 min 0 W/m 19,3 km/h (3 Bft) 98,00 %
01.04.2022 23:18 0,8 C 0,6 C -2,2 C 97 % 1013,2 hPa 0,0 l/m 0 min 0 min 0 W/m 19,3 km/h (3 Bft) 100,00 %
01.04.2022 23:20 0,8 C 0,6 C -2,2 C 97 % 1013,2 hPa 0,0 l/m 0 min 2 min 0 W/m 16,1 km/h (3 Bft) 97,87 %
01.04.2022 23:22 0,8 C 0,6 C -2,2 C 97 % 1013,2 hPa 0,0 l/m 0 min 0 min 0 W/m 19,3 km/h (3 Bft) 95,74 %
01.04.2022 23:24 0,8 C 0,6 C -2,2 C 97 % 1013,2 hPa 0,0 l/m 0 min 0 min 0 W/m 32,2 km/h (5 Bft) 97,92 %
01.04.2022 23:26 0,7 C 0,6 C -2,2 C 96 % 1013,2 hPa 0,0 l/m 0 min 0 min 0 W/m 19,3 km/h (3 Bft) 100,00 %
01.04.2022 23:28 0,7 C 0,0 C -2,2 C 97 % 1013,2 hPa 0,0 l/m 0 min 0 min 0 W/m 19,3 km/h (3 Bft) 97,87 %
01.04.2022 23:30 0,7 C 0,0 C -2,2 C 96 % 1013,3 hPa 0,0 l/m 0 min 0 min 0 W/m 22,5 km/h (4 Bft) 100,00 %
01.04.2022 23:32 0,7 C 0,6 C -2,2 C 96 % 1013,3 hPa 0,0 l/m 0 min 0 min 0 W/m 22,5 km/h (4 Bft) 97,87 %
01.04.2022 23:34 0,7 C 0,0 C -2,2 C 96 % 1013,3 hPa 0,0 l/m 0 min 0 min 0 W/m 19,3 km/h (3 Bft) 97,87 %
01.04.2022 23:36 0,7 C 0,0 C -2,2 C 96 % 1013,3 hPa 0,0 l/m 0 min 0 min 0 W/m 25,7 km/h (4 Bft) 97,87 %
01.04.2022 23:38 0,7 C 0,0 C -2,2 C 96 % 1013,2 hPa 0,0 l/m 0 min 0 min 0 W/m 25,7 km/h (4 Bft) 95,74 %
01.04.2022 23:40 0,7 C 0,0 C -2,2 C 96 % 1013,3 hPa 0,0 l/m 0 min 0 min 0 W/m 19,3 km/h (3 Bft) 100,00 %
01.04.2022 23:42 0,6 C 0,0 C -2,2 C 96 % 1013,2 hPa 0,0 l/m 0 min 0 min 0 W/m 22,5 km/h (4 Bft) 100,00 %
01.04.2022 23:44 0,7 C 0,0 C -2,2 C 96 % 1013,2 hPa 0,0 l/m 0 min 0 min 0 W/m 19,3 km/h (3 Bft) 100,00 %
01.04.2022 23:46 0,7 C 0,0 C -2,2 C 96 % 1013,3 hPa 0,0 l/m 0 min 0 min 0 W/m 19,3 km/h (3 Bft) 95,74 %
01.04.2022 23:48 0,7 C 0,0 C -2,2 C 96 % 1013,3 hPa 0,0 l/m 0 min 0 min 0 W/m 16,1 km/h (3 Bft) 100,00 %
01.04.2022 23:50 0,7 C 0,0 C -2,2 C 96 % 1013,3 hPa 0,0 l/m 0 min 0 min 0 W/m 16,1 km/h (3 Bft) 100,00 %
01.04.2022 23:52 0,7 C 0,6 C -2,2 C 96 % 1013,3 hPa 0,0 l/m 0 min 0 min 0 W/m 16,1 km/h (3 Bft) 97,83 %
01.04.2022 23:54 0,7 C 0,0 C -2,2 C 96 % 1013,3 hPa 0,0 l/m 0 min 2 min 0 W/m 29,0 km/h (5 Bft) 97,87 %
01.04.2022 23:56 0,7 C 0,0 C -2,2 C 96 % 1013,3 hPa 0,0 l/m 0 min 0 min 0 W/m 16,1 km/h (3 Bft) 95,74 %
01.04.2022 23:58 0,7 C 0,0 C -2,2 C 96 % 1013,3 hPa 0,0 l/m 0 min 0 min 0 W/m 16,1 km/h (3 Bft) 97,87 %
_ Min-Zeit 23:42 19:50 06:32 12:42 00:00 - - - - 18:24 08:36
Minimum _ 0,6 C 0,0 C -2,8 C 83 % 1000,5 hPa - - - - 6,4 km/h (2 Bft) 40,00 %
_ Max-Zeit 00:00 16:46 00:00 00:00 23:30 00:16 00:00 04:05 16:40 13:26 01:10
Maximum _ 2,7 C 2,8 C -0,6 C 97 % 1013,3 hPa 0,2 l/m 0 min 5 min 160 W/m 54,7 km/h
O-NO (7 Bft)
100,00 %
Durchschnitt _ 1,4 C 0,9 C -1,9 C 92 % 1007,1 hPa #3,0 l/m #0 min. #6:17 h 48 W/m 22,9 km/h (4 Bft) 97,11 %
© 2022 W. Hausmann